GFSMA_sfc_thetae_030.txt.gz
Theta_e
324 320 317 314 311 308 307 304 303 299 295 294 294 294 293 292 293 298 300 312 317 319 321 321 323 323 323 324 324 325 321 324 322 323 325 325 325 324 323 323 323 324 326
324 319 315 311 309 308 305 304 302 296 294 293 293 293 293 292 293 297 300 305 316 318 320 322 323 324 326 326 327 324 320 321 319 318 320 322 322 321 320 317 317 319 321
325 318 314 312 311 307 305 302 298 294 293 292 292 292 292 292 293 295 300 303 304 315 320 321 324 325 324 323 323 321 318 317 316 315 318 318 318 319 315 314 316 316 317
323 317 314 313 312 309 304 300 296 293 292 291 289 290 290 291 292 293 296 301 302 304 310 316 322 323 323 321 321 322 316 318 315 315 316 319 317 316 313 313 314 314 315
320 317 314 313 310 309 301 299 293 293 291 290 290 289 289 290 291 293 293 299 300 300 300 308 309 311 315 319 323 322 320 319 314 314 313 313 312 312 312 312 312 312 313
316 314 312 310 308 305 298 295 293 291 291 290 291 289 288 289 289 289 291 296 296 298 297 296 296 299 308 315 321 321 319 317 315 313 311 311 311 311 311 310 310 311 312
315 313 311 309 305 304 302 297 292 291 289 288 287 287 287 288 288 288 290 292 291 292 293 293 293 294 298 310 316 320 319 318 315 312 311 310 310 310 310 310 310 310 310
315 311 309 307 305 300 298 295 294 289 289 288 287 284 283 286 287 288 288 290 289 289 290 291 290 293 294 297 302 317 318 318 315 313 311 310 309 309 309 310 309 309 310
307 308 307 304 302 300 298 296 294 293 291 288 287 287 281 282 283 285 286 287 288 287 288 288 289 290 293 295 301 307 316 317 315 312 310 309 308 308 309 309 308 308 309
296 299 302 303 301 299 297 296 295 293 292 290 287 289 287 285 283 282 284 285 286 287 286 286 287 288 290 294 298 301 306 315 313 311 308 308 308 308 308 308 308 308 308
291 291 292 295 298 299 297 295 294 292 292 292 289 286 285 285 285 283 282 282 284 285 287 287 287 287 288 292 292 295 306 310 309 307 306 305 306 307 308 308 308 308 308
289 289 289 289 291 292 294 295 294 293 292 292 291 290 289 286 285 284 282 282 282 284 285 286 286 287 287 290 293 295 303 306 306 304 303 303 303 304 306 307 307 307 307
286 287 287 287 287 288 289 290 291 292 292 291 292 292 291 290 289 287 285 282 281 282 282 283 286 286 288 288 290 294 297 303 304 303 301 301 301 301 303 305 306 305 305
284 285 285 285 286 287 287 287 287 287 289 290 290 290 291 290 290 290 289 284 282 280 281 281 283 285 287 287 290 293 291 299 302 302 301 299 299 300 301 302 304 303 303
284 284 284 284 284 284 284 285 284 284 284 285 286 286 287 289 288 288 290 289 288 284 286 281 282 284 287 287 289 289 289 294 299 300 299 299 299 299 300 300 302 302 302
282 282 282 283 283 283 283 283 283 284 283 283 285 285 286 287 287 286 287 289 288 288 285 284 282 283 285 287 288 288 289 290 295 298 298 298 298 298 299 299 300 301 301
279 279 280 280 281 281 281 281 281 282 281 282 283 283 284 285 286 285 284 286 287 288 286 288 283 282 282 284 284 287 287 286 289 295 297 297 297 297 297 298 299 299 299
280 278 279 279 279 279 279 280 280 281 281 280 281 282 282 285 283 284 285 284 284 285 286 286 288 280 281 283 285 284 285 285 286 290 295 295 296 296 296 297 297 298 298
279 278 278 278 279 278 278 278 278 279 280 280 280 281 281 282 283 284 284 284 285 286 284 284 285 281 280 280 280 281 283 282 283 287 293 295 295 295 295 296 296 297 296
278 278 277 278 278 278 278 278 278 278 279 280 281 281 281 281 281 282 283 284 284 284 284 283 283 284 279 280 282 281 279 281 281 282 286 290 292 293 295 295 295 295 295
278 278 277 277 277 277 277 277 278 278 278 279 280 280 281 282 284 284 283 282 283 283 283 283 283 282 279 278 279 280 282 281 281 282 280 282 285 287 289 294 292 293 294
276 276 276 276 275 277 280 281 280 277 278 277 277 279 279 281 282 285 286 288 287 283 282 283 283 282 283 281 282 282 281 280 279 281 279 279 282 283 285 287 292 293 294
273 272 273 273 273 274 278 279 280 278 277 276 276 277 278 279 280 280 283 285 285 287 289 285 283 283 283 284 282 281 281 282 282 279 281 279 281 280 283 285 290 293 293
269 269 270 270 270 272 275 276 276 275 274 275 275 275 275 275 277 278 279 279 281 281 282 284 285 286 287 286 285 283 283 282 283 280 281 279 281 278 281 283 289 291 293
266 266 267 267 266 267 271 272 273 271 271 271 273 273 273 273 276 278 276 276 277 280 284 287 288 289 290 291 290 285 282 280 279 281 279 279 278 278 279 280 282 289 292
265 265 265 265 264 264 268 270 271 269 268 269 270 272 274 274 276 278 275 275 274 277 279 281 282 284 288 287 290 289 284 281 280 280 280 278 278 278 276 280 280 282 286

GFSMA_sfc_thetae_033.txt.gz
Theta_e
324 321 319 318 316 313 309 306 304 302 297 294 293 292 292 292 292 296 297 308 314 319 322 323 322 323 324 324 324 323 322 323 320 321 325 325 325 325 323 323 323 325 326
321 321 318 316 315 312 308 306 303 301 295 293 293 292 292 291 291 295 297 302 314 318 322 322 323 324 324 324 325 325 321 321 318 317 320 322 322 321 319 319 318 320 322
323 322 318 315 314 311 307 304 301 297 294 292 291 291 291 291 291 292 297 301 304 311 318 322 323 325 326 326 328 323 320 317 317 315 318 319 318 317 315 314 315 316 319
323 319 316 314 314 311 309 306 302 296 293 291 289 289 289 290 291 292 295 299 301 303 308 316 320 324 325 324 323 323 320 318 318 315 317 318 318 316 314 314 314 315 315
323 320 317 314 312 311 308 305 299 298 293 291 290 289 288 288 290 291 291 293 299 301 300 307 309 310 319 323 322 323 322 319 318 315 316 314 313 313 313 313 313 313 313
319 317 315 313 311 309 305 301 299 294 292 291 291 289 287 288 288 288 289 292 296 299 298 298 297 300 307 314 321 324 323 322 318 315 315 314 313 313 313 312 312 312 312
314 314 313 312 309 308 306 302 296 295 293 291 288 287 287 287 287 288 288 289 292 294 295 296 295 295 298 310 317 323 322 322 318 316 314 313 312 312 312 312 312 312 311
303 307 306 305 305 303 301 298 296 294 293 292 290 287 285 286 286 287 287 288 289 291 290 292 292 293 294 296 301 314 321 321 319 316 314 313 312 312 312 312 312 312 312
294 296 300 302 301 301 300 298 296 295 294 292 290 291 286 282 282 285 285 286 287 288 288 289 289 290 291 293 299 304 313 319 319 318 315 313 312 311 311 311 311 311 311
290 290 291 293 297 299 298 297 296 294 293 292 290 290 288 288 285 284 284 285 285 287 286 287 287 288 289 290 295 299 303 309 315 318 315 312 311 310 310 311 311 311 311
287 287 288 289 289 290 291 294 294 293 293 292 291 290 288 288 287 285 285 283 284 285 286 287 287 287 287 288 290 294 302 306 311 314 313 311 310 309 309 310 310 310 311
285 285 285 286 286 287 287 288 289 290 292 292 292 291 289 288 287 287 285 285 284 285 285 285 285 288 288 287 291 296 300 304 311 311 310 309 308 307 308 309 309 310 310
282 283 283 283 283 284 285 285 286 287 288 288 290 292 292 291 290 289 287 288 285 284 283 283 285 287 287 286 288 294 297 302 308 309 308 307 306 306 306 307 308 309 309
282 282 282 282 282 283 283 283 283 283 285 285 286 287 289 290 291 290 289 287 286 288 286 283 283 284 286 286 288 292 292 298 304 308 307 305 305 305 304 305 306 307 307
282 282 282 282 282 281 282 282 281 281 282 284 284 284 285 287 288 288 290 290 287 284 286 289 282 284 285 285 287 288 289 293 299 304 306 305 304 303 303 303 304 306 306
279 279 279 279 279 280 280 280 280 280 280 281 282 283 284 285 285 285 285 287 287 286 284 286 287 283 284 285 286 287 288 291 295 300 302 303 303 302 301 301 302 303 305
278 278 279 278 278 278 278 278 278 279 279 279 280 280 281 283 284 285 284 284 285 284 283 286 286 284 283 283 284 285 287 287 289 295 299 301 301 301 300 300 301 301 302
278 278 278 278 278 278 277 277 277 277 277 277 278 279 279 282 281 283 283 283 284 284 283 282 285 285 282 283 284 284 285 286 286 290 296 299 300 300 300 300 300 300 300
278 278 278 277 277 277 277 277 277 276 276 277 277 278 279 279 279 280 281 282 283 284 283 282 282 285 283 281 282 283 284 284 284 288 292 296 298 299 299 299 299 299 298
277 277 277 277 277 277 277 277 277 276 276 277 278 278 278 279 279 279 280 280 281 282 282 281 282 282 283 282 281 281 281 282 283 284 287 289 293 296 297 298 297 296 297
276 275 275 274 275 275 276 276 277 277 277 277 277 277 278 278 281 281 280 280 280 280 280 280 280 281 281 278 280 282 282 284 282 284 282 283 285 289 291 295 294 294 296
272 272 272 272 272 273 276 278 277 276 276 276 276 277 277 277 278 280 282 283 283 280 280 280 280 279 280 281 282 282 281 281 280 282 282 281 283 284 287 289 293 295 296
270 269 269 269 269 269 273 275 275 274 273 272 273 274 275 277 276 276 278 279 280 281 283 281 280 281 281 282 282 281 282 282 282 281 282 280 282 281 285 287 292 294 295
267 267 267 267 267 268 272 272 273 271 271 271 271 272 272 272 274 274 274 273 275 276 277 279 280 280 282 284 284 284 283 283 284 284 282 280 281 280 282 284 289 292 294
265 264 266 265 264 264 269 271 271 269 269 269 270 271 271 271 273 275 273 271 272 274 278 280 281 283 285 287 286 284 282 280 280 281 280 281 282 280 281 281 283 289 292
264 264 264 263 263 262 267 269 270 268 267 268 269 270 272 272 274 275 273 272 270 272 274 275 276 278 281 281 286 285 284 282 281 281 282 279 280 278 276 279 281 283 286

GFSMA_sfc_thetae_039.txt.gz
Theta_e
328 327 326 324 324 321 319 317 315 315 312 307 302 300 299 299 299 300 302 303 309 316 320 324 326 324 324 324 324 324 323 322 320 320 323 325 322 322 323 324 324 324 326
329 326 324 322 321 322 319 317 313 313 313 307 303 300 299 299 298 298 299 302 306 311 316 322 327 325 325 325 324 325 323 320 320 318 319 322 322 321 320 319 319 320 320
325 324 323 322 321 318 317 313 310 308 306 302 302 300 299 298 298 298 298 300 303 306 310 317 322 326 326 327 327 327 326 321 319 317 317 319 320 317 317 315 316 317 318
321 321 320 318 318 317 314 312 309 309 307 302 300 300 299 298 297 297 298 298 300 303 306 309 315 318 321 326 328 326 326 323 319 319 315 317 319 317 316 314 315 315 315
314 313 312 312 313 312 309 308 305 303 302 301 300 300 298 298 298 296 297 297 298 300 303 306 307 308 313 319 324 327 325 324 321 319 316 316 317 316 316 315 314 314 315
307 307 306 307 309 307 305 305 303 301 299 297 297 296 298 297 298 298 297 296 296 297 299 302 305 307 306 312 317 323 324 324 323 321 318 317 316 316 316 316 315 314 314
298 302 303 303 305 303 302 302 301 300 299 297 296 299 299 297 295 296 296 296 296 296 297 298 301 304 304 306 310 313 319 324 327 323 321 319 317 316 315 315 314 314 315
293 294 295 296 298 299 299 299 299 300 300 296 295 294 294 299 295 294 295 294 295 295 296 296 297 298 301 302 303 308 314 317 321 324 324 321 318 316 316 315 315 315 315
288 289 290 291 292 292 293 294 296 296 296 298 297 296 295 292 292 299 296 294 294 295 295 295 295 296 297 298 300 302 304 309 314 316 319 322 321 318 316 315 315 314 314
286 286 287 287 287 288 288 290 291 293 295 293 296 295 294 292 291 290 294 297 295 293 295 296 295 295 295 296 297 298 299 303 305 309 312 315 319 321 318 316 314 314 314
285 285 285 285 285 286 286 286 287 287 289 290 291 292 293 293 292 288 288 291 295 296 296 295 295 295 295 295 295 296 297 300 302 304 306 308 311 316 320 317 315 314 313
283 283 284 284 284 284 284 284 285 285 285 286 286 288 289 289 290 289 288 290 290 294 295 295 294 295 295 294 294 294 296 298 300 302 304 306 307 310 316 318 316 314 313
281 281 282 282 282 283 283 283 283 283 283 283 283 285 286 286 288 288 287 287 288 290 292 293 295 295 293 294 293 292 293 295 298 300 302 304 305 307 312 316 315 314 313
281 281 281 281 281 281 281 281 281 281 282 282 281 283 283 284 285 286 285 284 282 284 288 290 292 293 294 293 292 292 293 293 296 298 300 302 303 306 312 315 314 313 312
281 281 281 280 280 280 280 280 280 279 280 280 280 281 281 282 283 284 284 285 283 279 281 286 289 290 292 294 295 294 294 293 294 296 298 300 301 305 311 313 312 311 311
280 280 279 279 279 279 279 279 279 279 279 279 280 279 280 281 281 282 283 283 283 282 279 285 286 288 290 290 291 292 293 291 292 294 296 297 299 301 307 309 309 309 310
279 279 279 278 278 278 278 278 277 278 277 278 278 278 278 279 279 280 281 281 281 281 280 282 285 286 286 287 288 290 290 290 291 292 293 295 297 299 302 306 307 307 307
278 278 277 277 277 277 277 276 276 277 277 276 277 277 277 278 278 279 279 279 279 280 280 278 281 283 283 285 286 287 287 288 288 290 292 294 295 296 299 301 304 305 305
276 276 275 275 274 275 274 275 276 276 276 276 276 276 276 277 277 278 278 278 279 279 279 279 278 282 282 284 284 285 286 287 287 289 291 292 294 295 296 298 300 302 302
274 274 274 273 273 273 273 274 275 275 275 275 275 275 275 275 275 276 277 278 278 278 278 278 278 278 280 282 283 282 283 285 285 286 288 289 290 292 294 296 297 297 299
272 272 272 271 271 272 273 274 274 274 273 273 273 273 273 274 275 275 275 275 276 276 277 277 276 277 278 278 279 282 281 283 285 286 286 287 287 288 290 292 293 294 297
271 270 270 269 269 270 273 275 275 273 272 271 271 272 272 272 273 274 275 276 276 274 273 274 275 275 276 276 278 278 279 279 278 286 286 285 287 286 288 289 291 293 296
269 268 268 268 268 268 272 275 274 273 272 271 270 270 270 271 271 271 273 274 274 275 276 275 273 273 274 275 276 275 276 277 278 282 283 282 286 285 287 287 290 291 293
267 267 266 267 267 267 272 273 274 272 271 271 270 270 270 270 271 272 272 272 273 274 274 275 275 275 276 277 277 277 276 277 278 280 281 277 282 283 286 288 289 290 292
265 265 267 265 264 265 269 272 272 271 270 270 270 271 271 271 273 275 274 273 273 273 276 277 278 278 279 279 279 277 274 273 272 276 280 279 281 282 284 285 287 289 290
265 265 265 264 263 263 267 271 272 271 269 270 271 271 273 274 275 276 274 273 271 272 273 273 274 276 277 277 278 277 276 272 272 271 276 276 277 280 279 284 285 286 287

GFSMA_sfc_thetae_042.txt.gz
Theta_e
338 337 332 331 329 327 325 329 323 320 323 319 314 310 307 306 306 306 307 306 307 312 317 321 326 328 325 325 324 324 323 322 321 320 322 324 324 321 323 323 323 323 324
329 329 329 328 325 324 324 322 320 316 315 312 314 311 309 308 306 305 305 306 304 308 312 317 323 328 329 326 325 325 325 322 320 318 319 321 322 321 320 319 319 320 320
325 324 323 321 321 320 320 316 313 313 313 311 310 306 306 309 308 306 305 305 306 308 308 312 316 321 325 328 329 328 328 326 320 318 317 318 320 318 318 317 316 318 318
318 319 316 316 316 314 313 312 310 310 309 307 305 305 305 309 308 307 306 305 305 304 308 308 311 315 318 322 326 329 328 326 324 320 318 317 319 318 317 317 314 316 316
312 313 312 311 311 311 310 310 307 309 308 308 304 305 306 303 304 307 307 306 305 304 304 306 306 308 311 316 321 324 328 327 325 322 319 317 317 317 317 317 316 315 316
311 312 310 308 310 310 309 310 308 305 304 302 301 302 305 303 302 305 307 304 304 303 303 303 305 306 307 310 315 320 323 327 323 324 322 319 318 317 317 317 317 316 315
302 304 305 306 307 306 306 306 308 307 306 304 306 309 309 306 304 304 305 305 303 301 302 303 303 304 305 306 309 313 318 322 323 324 324 322 321 319 317 316 316 316 316
296 297 299 299 300 301 300 301 303 305 305 304 301 304 304 306 303 305 306 303 302 303 303 301 301 302 303 303 305 307 310 315 318 321 321 322 323 321 319 317 316 316 316
292 292 292 293 293 295 294 296 298 299 299 301 301 299 298 298 298 304 304 302 303 302 302 304 303 303 302 303 303 304 305 307 309 311 314 318 319 322 322 319 317 316 316
290 291 291 291 291 291 291 291 291 293 294 293 299 298 300 297 294 294 300 301 300 300 302 302 302 302 303 303 302 301 301 302 304 306 308 309 312 317 320 322 319 317 316
289 289 289 289 289 289 289 289 290 290 290 289 289 290 292 294 297 292 290 293 294 295 298 299 299 300 301 302 302 301 299 299 301 302 304 306 307 309 313 318 321 319 317
288 288 288 288 288 288 288 288 288 288 288 288 288 289 288 287 286 286 285 286 288 290 293 295 296 298 300 300 298 296 296 297 299 300 301 303 305 307 308 310 317 320 318
286 286 287 286 286 286 286 287 286 286 286 286 286 286 287 287 287 287 286 285 285 288 289 293 296 297 297 300 298 293 295 297 298 299 300 301 303 304 306 308 309 315 318
285 286 285 285 285 284 284 285 285 285 285 285 284 285 285 285 286 285 284 283 282 284 286 287 292 295 296 296 294 293 293 296 297 298 299 300 301 302 304 306 308 309 317
284 285 284 284 284 284 283 284 284 283 284 284 284 284 284 285 285 285 285 284 282 279 281 285 286 292 294 292 291 292 291 293 293 294 296 298 299 301 302 303 306 309 313
284 283 283 283 283 283 283 283 283 283 282 283 282 282 282 283 283 284 284 284 284 281 280 284 285 288 289 288 290 289 291 291 292 293 293 294 296 298 300 301 303 307 311
283 282 282 281 281 281 281 281 281 281 280 281 282 281 281 282 281 282 282 282 282 282 280 282 285 286 286 286 288 289 290 290 290 291 292 293 294 295 297 299 300 303 308
282 281 280 280 279 279 279 279 279 279 279 279 279 279 279 279 279 280 281 280 280 281 280 278 281 282 283 285 286 286 287 288 288 290 291 292 293 293 295 297 298 300 302
280 279 278 278 277 277 277 278 278 278 278 278 278 277 277 277 277 277 277 277 278 279 279 279 279 281 282 283 283 284 285 287 288 289 290 290 291 292 293 294 296 298 298
278 277 277 276 276 276 276 276 277 278 278 277 277 277 276 276 275 275 275 275 276 277 277 277 277 278 280 281 282 281 282 285 285 287 289 289 290 291 291 292 293 294 296
276 276 275 275 275 274 275 276 277 277 276 276 276 276 275 275 275 275 275 275 274 274 274 274 274 275 276 277 277 279 279 281 282 284 285 288 289 290 291 291 291 292 293
275 274 273 273 273 273 273 276 276 276 275 274 274 274 274 274 274 275 275 276 276 274 273 273 273 272 273 275 277 276 277 276 275 282 283 282 287 287 289 290 291 291 291
274 273 272 272 272 272 272 275 275 275 275 274 273 273 273 273 273 273 274 275 275 276 277 275 273 273 273 274 275 274 275 275 275 279 279 278 281 281 284 286 289 290 290
272 272 272 271 271 271 272 273 275 275 274 273 273 273 273 273 273 273 273 274 274 275 276 276 276 276 276 277 277 276 277 277 278 279 279 275 280 280 284 286 287 288 289
271 271 271 270 269 269 271 273 273 274 273 273 273 274 273 273 275 277 276 274 275 275 278 279 279 280 280 280 280 278 276 275 274 275 278 276 277 277 279 281 284 287 288
271 270 270 269 268 267 269 271 273 274 273 273 274 274 276 275 277 278 276 276 274 276 276 277 277 278 279 278 279 278 277 273 273 273 277 275 275 276 274 280 281 284 286

GFSMA_sfc_thetae_045.txt.gz
Theta_e
336 336 334 331 332 330 327 329 326 322 322 321 318 314 313 312 310 309 310 307 306 309 313 317 322 328 330 327 325 324 324 323 322 320 321 322 325 323 322 322 322 323 324
329 329 328 324 323 323 322 322 319 319 317 314 316 314 313 313 312 311 310 310 307 306 309 313 317 321 326 330 330 326 326 326 322 318 319 320 321 321 320 320 320 320 321
327 324 323 323 321 320 318 318 315 314 316 314 315 315 313 313 312 311 311 310 310 309 306 309 313 316 320 323 327 329 331 329 324 321 317 318 319 320 319 318 317 317 318
319 317 315 314 314 314 313 312 310 310 309 310 312 313 310 310 313 312 311 310 311 308 311 307 308 310 312 317 322 325 328 330 328 324 321 317 317 319 319 318 318 316 316
316 315 314 314 312 312 312 311 311 310 311 311 308 309 310 308 307 307 310 311 309 308 306 309 306 307 309 311 315 320 324 326 329 325 323 322 319 318 318 318 318 317 317
310 311 311 312 311 311 309 311 311 311 308 307 306 307 310 311 308 307 308 305 306 305 305 306 307 306 308 308 311 314 318 321 324 326 325 324 322 320 318 319 318 318 317
303 304 304 305 306 304 304 305 307 308 306 305 308 307 310 309 306 306 308 307 305 305 306 304 304 304 304 306 307 309 312 314 319 322 324 324 324 324 322 319 318 317 317
296 297 298 298 300 299 298 299 301 303 303 303 299 303 303 305 304 306 306 305 305 304 304 305 305 304 305 305 305 307 309 310 311 312 315 318 321 323 324 322 320 319 318
294 294 294 294 294 294 293 293 294 295 295 299 299 298 296 295 296 304 303 303 302 301 301 301 302 303 303 304 305 305 306 306 307 308 309 311 312 315 320 323 323 320 319
292 292 293 293 293 292 292 292 292 292 292 290 294 293 297 295 292 290 296 296 293 293 294 299 295 297 301 302 303 303 301 301 302 304 305 307 309 311 312 315 320 323 321
291 290 291 291 291 291 291 291 291 291 291 289 290 290 290 290 294 286 284 286 290 292 294 292 294 297 298 299 301 300 298 299 300 302 303 303 305 308 310 311 312 317 321
289 289 289 289 288 289 289 289 290 289 289 289 288 288 287 285 285 284 283 284 285 287 290 290 295 294 297 296 298 296 295 295 298 299 300 301 303 305 306 309 311 312 314
287 287 287 287 287 286 287 288 288 287 287 287 287 286 287 286 286 285 284 283 282 285 286 289 291 294 294 296 297 293 293 294 295 296 297 298 300 302 304 306 307 309 310
286 287 286 286 286 286 286 287 287 286 286 286 285 286 285 286 286 285 283 282 280 282 284 284 288 289 292 295 293 293 290 294 293 294 296 296 297 298 301 303 305 306 308
286 286 286 285 285 285 285 285 285 284 285 285 285 285 284 285 285 285 285 284 281 277 278 283 284 288 288 288 289 288 288 290 292 293 294 295 296 296 297 299 302 304 306
285 285 284 284 284 284 283 284 284 284 283 284 283 283 283 283 283 284 284 283 282 280 277 282 283 285 286 286 287 287 287 289 291 291 292 293 293 294 296 297 298 301 303
284 284 283 283 282 282 282 282 282 281 281 281 282 281 281 282 281 281 281 282 281 281 277 279 282 283 283 283 284 285 286 286 286 290 290 291 292 293 294 295 296 297 300
284 283 282 281 281 280 280 280 280 280 280 279 280 279 279 279 278 279 279 278 278 278 277 275 278 278 279 281 282 281 283 285 285 288 290 291 291 292 292 293 294 295 296
283 281 280 280 279 279 278 279 278 279 279 279 279 278 277 277 277 277 276 276 276 276 276 275 275 277 278 279 279 281 281 282 284 287 289 289 290 290 291 292 292 293 294
281 280 279 278 278 277 277 277 278 278 278 278 278 278 277 276 276 275 274 275 275 275 275 274 273 274 275 276 277 276 277 279 279 282 283 284 286 287 288 291 292 292 292
280 279 278 277 277 276 276 276 277 278 277 277 277 277 276 276 276 276 275 274 274 273 273 272 272 272 272 273 273 275 275 276 277 278 278 279 280 282 282 287 289 291 292
278 277 276 276 275 275 276 276 277 276 276 276 275 275 275 276 276 276 277 277 276 273 272 271 272 272 273 273 274 274 274 273 271 277 276 276 279 279 280 281 285 286 288
277 276 275 275 274 275 276 276 276 276 275 275 275 274 274 275 275 274 276 277 277 277 278 275 273 273 273 274 274 273 273 273 273 276 276 274 278 277 280 282 285 286 287
276 275 274 274 274 274 275 275 276 275 275 275 275 274 274 274 275 275 274 275 276 276 276 276 276 276 276 276 276 275 275 275 276 277 278 273 276 275 278 279 283 284 285
275 274 274 273 272 273 274 274 275 274 274 274 275 275 275 274 276 278 276 274 275 276 279 279 280 280 281 281 281 278 275 273 272 273 277 274 275 275 276 277 278 282 284
275 274 273 273 271 270 273 274 274 273 273 274 275 275 277 277 278 278 276 274 271 272 273 273 275 276 277 277 279 277 276 272 272 271 275 273 274 274 271 275 277 278 278

GFSMA_sfc_thetae_048.txt.gz
Theta_e
329 329 329 327 325 326 323 321 319 318 313 314 313 310 308 307 305 304 302 308 309 310 313 315 319 322 327 331 331 326 324 324 322 320 320 322 323 324 322 321 321 322 323
325 324 323 322 320 321 319 317 315 315 313 312 312 310 309 308 308 306 304 303 311 308 310 314 317 318 321 325 329 330 331 330 326 321 319 319 320 322 320 320 320 319 320
316 316 315 314 315 316 315 314 313 312 312 312 313 311 308 308 308 307 306 305 305 309 310 312 312 314 315 317 322 326 327 329 331 323 321 319 318 319 321 319 318 317 317
313 312 311 311 312 313 313 311 310 310 310 308 306 306 305 306 306 304 305 305 304 303 306 310 310 311 312 314 316 318 322 326 328 329 325 323 320 319 319 319 319 318 317
312 310 308 308 308 307 308 307 305 304 302 301 301 302 304 304 302 304 304 302 301 300 300 307 309 308 309 312 313 314 316 319 323 325 326 326 324 321 320 319 318 319 318
304 303 303 302 303 301 300 300 304 303 299 298 301 302 303 303 301 300 300 302 299 301 300 299 299 300 308 310 312 313 314 314 316 318 323 325 325 324 322 321 320 320 319
298 298 298 298 297 295 295 296 298 298 297 297 296 297 301 299 298 299 299 298 299 300 299 300 299 299 301 308 309 311 314 314 314 313 314 317 319 322 324 325 324 321 320
292 293 291 291 291 290 290 290 290 294 293 292 292 294 293 297 295 299 297 296 294 295 295 293 297 292 295 298 301 307 309 310 311 311 311 311 312 314 317 320 324 323 321
290 290 290 290 289 289 288 287 287 287 286 288 288 291 288 287 289 293 290 289 288 288 288 291 290 291 294 296 299 300 304 305 306 307 308 309 310 311 313 315 317 320 324
288 288 288 288 287 287 286 286 287 286 285 284 286 288 285 284 285 284 285 286 287 287 286 287 287 289 293 294 296 300 300 299 299 301 303 305 307 309 310 311 313 315 317
286 287 286 286 286 286 285 285 284 284 284 283 283 283 283 282 282 279 277 280 283 284 285 286 286 288 291 292 291 295 298 299 298 298 298 300 301 304 307 310 311 312 314
285 285 285 284 284 284 284 284 283 283 283 283 282 282 282 280 279 279 277 278 278 281 284 284 285 286 289 291 294 295 295 295 296 296 296 297 298 300 302 304 308 310 311
282 283 283 282 282 282 283 283 282 281 282 281 281 281 282 282 282 281 279 277 276 279 280 283 284 285 287 288 291 291 292 293 294 294 294 295 297 298 299 301 302 306 308
282 282 282 282 282 282 282 282 281 281 280 280 280 280 280 281 282 281 279 278 276 276 278 278 282 283 284 285 288 290 286 289 291 292 293 294 295 296 297 299 300 300 303
283 282 281 281 281 281 281 281 280 279 279 279 279 279 279 280 280 280 280 279 277 273 274 277 277 282 283 284 285 284 284 287 289 290 291 292 292 294 295 296 298 299 300
282 281 280 280 280 280 279 279 278 278 278 278 279 278 278 279 278 278 278 278 278 275 273 278 278 280 281 282 283 282 282 285 286 287 288 290 291 292 294 295 296 297 298
281 280 280 279 279 278 278 277 277 277 277 277 277 276 277 277 276 276 276 276 276 275 273 275 276 277 277 277 279 279 280 280 282 286 287 288 290 291 292 293 294 295 296
280 279 279 278 278 278 277 277 276 276 276 276 276 276 275 277 274 275 274 274 274 274 272 272 274 274 274 276 276 276 278 280 279 283 287 288 288 288 288 290 291 292 293
278 278 278 277 277 277 276 276 276 276 275 275 276 275 275 275 274 274 272 272 273 274 273 272 271 274 274 274 274 275 276 276 279 281 283 283 284 285 286 287 289 290 291
278 277 277 276 276 276 275 276 276 275 275 276 276 275 275 274 274 273 273 273 274 272 272 272 271 272 273 274 274 273 273 275 275 277 279 280 281 282 284 284 285 285 286
277 277 276 275 275 275 275 275 276 275 275 275 275 276 275 275 277 277 275 273 273 271 271 271 271 271 272 272 272 274 273 273 274 275 275 276 277 277 278 281 281 283 285
276 276 275 275 274 275 278 277 277 276 276 275 274 274 274 275 275 277 277 278 277 273 271 270 272 272 273 273 274 273 273 272 270 276 274 274 277 276 277 278 282 284 284
275 274 274 274 273 274 278 278 278 276 275 274 275 274 274 275 274 274 275 277 277 278 279 276 274 273 273 274 274 274 274 274 273 275 275 273 276 275 277 279 282 283 283
274 273 273 273 273 273 278 278 278 275 274 274 274 274 274 274 274 274 274 274 275 276 276 277 276 275 276 277 277 277 276 275 276 277 278 271 275 274 276 277 281 282 283
272 272 272 270 270 271 277 278 277 274 274 274 275 274 274 274 276 278 276 271 273 273 276 277 278 279 279 278 277 274 271 271 270 272 276 273 273 273 275 275 277 280 282
273 273 272 270 270 268 276 277 277 273 268 272 273 275 277 276 278 279 276 270 269 270 271 272 270 271 273 273 275 274 273 270 270 270 275 273 273 273 271 275 276 276 276

GFSMA_sfc_thetae_051.txt.gz
Theta_e
329 328 326 324 323 321 319 318 318 316 312 313 312 309 308 307 305 303 302 308 313 314 317 320 320 320 321 322 327 330 331 330 328 323 320 321 321 323 323 321 320 321 321
322 322 319 319 318 319 317 314 313 311 312 310 311 310 308 307 307 305 303 303 313 313 315 316 317 318 318 318 319 323 326 329 330 324 321 319 319 320 320 320 320 319 318
313 314 314 313 314 313 312 312 312 310 308 309 309 308 306 306 305 304 304 303 302 309 312 313 314 315 316 318 318 318 319 322 325 328 324 322 319 319 320 321 320 319 318
311 310 310 311 311 311 310 306 306 303 301 301 300 301 304 304 303 303 301 300 300 300 304 310 310 311 314 316 317 318 318 318 319 321 324 327 327 323 321 321 320 320 319
307 305 304 303 302 301 301 304 301 299 296 296 298 300 302 300 300 300 299 300 300 299 298 303 305 301 305 310 313 315 317 317 316 316 317 319 322 324 324 322 321 321 321
301 300 298 297 297 296 295 298 297 296 293 293 299 299 300 296 298 297 297 295 295 295 291 294 296 291 302 306 309 312 314 315 315 314 314 314 315 317 319 321 324 324 322
294 294 293 291 291 290 289 292 295 291 289 290 295 296 296 295 297 293 293 289 289 292 289 292 291 289 292 301 306 308 309 311 311 311 312 312 313 313 314 316 319 321 324
291 291 290 289 288 288 287 287 287 288 287 286 290 291 290 294 291 290 288 287 285 287 287 290 288 287 289 292 297 304 306 306 307 306 307 307 308 311 313 313 314 316 319
289 289 288 288 287 287 286 285 285 285 283 285 285 288 283 281 286 291 285 284 284 284 284 286 286 287 289 290 293 298 302 304 305 304 304 304 304 305 306 310 312 313 314
287 287 287 287 286 285 285 285 285 284 283 281 283 285 282 282 280 279 281 282 283 283 283 284 284 286 287 288 292 297 297 298 299 299 300 301 301 302 304 305 306 309 313
285 285 285 285 285 285 283 283 282 282 282 281 281 281 281 280 280 277 276 277 280 281 282 282 283 284 286 287 290 290 293 294 295 295 296 297 298 300 302 304 305 306 307
284 284 284 283 283 283 282 282 282 281 281 281 281 281 280 278 277 277 276 276 276 278 281 282 281 283 284 284 287 289 290 291 292 292 293 294 296 297 299 301 303 304 305
282 282 282 281 281 282 282 281 281 281 280 280 280 280 281 280 281 279 278 276 275 277 279 280 281 281 284 283 284 287 287 288 290 290 291 292 294 295 295 297 299 301 302
282 282 281 281 281 281 281 281 280 280 279 279 278 279 279 279 280 279 278 276 274 275 275 277 279 279 281 281 283 284 282 285 287 288 289 290 291 292 294 295 297 298 299
282 281 280 280 280 280 280 280 279 278 278 278 277 278 278 278 279 278 279 278 276 272 272 274 275 278 278 279 280 280 279 282 285 286 287 288 290 291 292 293 295 296 298
281 280 279 279 279 279 279 278 277 277 277 277 277 277 277 277 277 277 277 277 276 274 271 275 274 275 277 278 279 278 278 281 281 283 285 286 288 290 291 292 293 294 296
280 279 279 279 278 278 277 277 276 276 276 276 276 276 276 276 275 274 274 275 274 273 271 273 274 275 275 274 276 276 277 276 277 281 283 285 285 286 287 288 289 290 291
279 279 279 278 278 277 277 276 276 276 276 276 276 275 275 277 274 274 273 273 273 273 271 271 273 273 273 274 274 274 276 277 276 280 283 283 284 284 285 285 286 287 288
278 278 278 277 277 277 276 276 276 276 275 275 275 275 275 274 274 273 272 271 272 274 272 272 271 273 273 274 274 274 275 275 277 280 281 282 282 283 283 284 284 284 284
277 277 277 277 276 276 276 276 276 275 275 275 276 275 275 274 274 273 273 273 273 272 272 271 271 272 273 274 274 273 273 275 275 277 279 279 281 281 282 283 283 282 283
277 277 276 275 275 275 275 275 276 275 275 275 275 276 275 275 277 277 275 273 273 271 271 271 271 272 272 273 273 274 273 274 275 276 275 276 277 277 277 280 280 281 283
277 276 275 274 273 275 279 280 277 276 276 275 274 274 275 274 275 278 278 279 278 272 265 264 272 273 273 273 274 274 273 272 271 277 275 275 277 276 277 278 281 282 283
275 275 274 274 274 274 280 281 280 276 275 275 274 275 275 275 274 274 275 277 278 278 279 277 273 273 272 273 273 273 273 272 272 274 274 272 276 274 276 278 281 282 282
275 274 274 274 273 274 280 281 280 276 275 274 274 274 274 274 274 274 273 273 274 275 276 276 274 274 274 276 274 273 272 271 272 274 275 270 274 274 276 276 280 281 282
274 274 273 272 272 272 280 281 280 275 274 274 274 274 274 273 276 278 275 273 272 273 276 277 277 278 277 276 275 271 268 267 267 269 273 271 273 272 274 275 277 280 281
276 274 274 272 271 270 278 280 279 274 268 272 272 274 276 276 277 279 276 270 268 270 272 270 268 270 271 271 273 271 269 266 266 264 270 268 269 270 268 273 275 275 275

GFSMA_sfc_thetae_054.txt.gz
Theta_e
329 327 324 323 322 320 316 316 316 311 310 311 310 308 307 306 304 303 304 312 316 317 320 321 321 322 322 322 321 321 322 324 325 328 323 322 320 319 322 322 322 322 321
323 320 318 318 317 317 314 311 311 309 308 309 309 308 305 305 304 302 301 303 312 313 315 317 316 319 320 321 321 321 320 320 321 322 324 325 323 321 320 320 321 321 320
317 316 314 313 313 313 313 312 310 308 304 305 304 305 304 303 302 300 300 300 299 305 309 308 307 311 314 316 318 319 320 319 319 319 319 320 321 323 325 323 322 321 321
311 312 311 310 311 310 307 305 303 298 297 298 299 301 300 300 299 298 298 297 294 294 300 304 301 307 309 312 314 316 317 318 318 316 316 316 318 319 320 322 324 323 322
305 303 301 300 301 300 301 298 294 294 294 296 299 299 297 297 296 294 292 293 290 289 292 296 297 300 304 306 309 312 313 313 312 312 313 314 315 315 316 317 319 320 323
299 297 295 294 295 296 295 294 290 289 290 294 297 295 295 294 292 288 287 289 289 287 289 289 287 289 299 301 305 308 309 310 310 309 309 309 309 310 312 314 315 316 318
294 292 291 290 290 290 290 291 290 286 287 287 295 294 293 290 287 287 285 285 286 286 286 286 286 286 289 296 301 305 307 308 308 307 307 306 307 307 308 309 311 314 315
290 289 288 287 287 287 285 285 287 285 284 284 291 291 289 292 289 285 284 284 282 283 284 285 285 286 287 288 296 301 302 304 304 304 303 303 304 304 305 307 308 309 311
288 288 287 286 286 285 284 283 284 284 282 283 283 287 281 280 282 288 282 282 281 281 282 283 284 285 285 287 291 290 296 297 299 299 300 300 301 302 303 305 306 307 308
286 286 286 285 284 284 283 283 284 283 282 280 282 284 281 281 278 277 279 280 281 281 281 281 282 283 285 284 286 289 291 293 294 295 296 297 299 300 302 303 304 305 306
284 284 284 284 283 283 282 282 282 282 282 281 280 280 280 279 278 277 275 277 279 279 280 281 281 281 283 282 283 285 289 290 291 291 292 294 295 297 299 300 301 302 304
282 283 283 283 283 283 282 282 281 281 280 280 280 280 280 278 277 276 275 275 275 278 279 279 279 280 281 281 283 285 286 288 289 289 290 291 293 294 296 298 299 300 301
280 281 282 283 282 282 282 281 281 280 280 280 279 279 280 279 279 278 277 275 274 276 278 278 279 279 280 279 280 283 283 285 287 288 288 289 291 292 293 295 296 297 298
282 281 281 281 281 281 281 281 280 280 279 278 278 278 279 279 279 279 278 276 273 274 274 275 277 277 278 278 280 282 278 282 285 286 287 288 288 290 291 293 296 297 298
281 280 280 280 280 280 279 279 279 278 277 277 277 277 278 278 278 278 278 277 276 271 271 273 275 276 276 277 278 278 277 280 283 284 285 286 287 288 289 290 291 293 294
280 279 279 278 279 279 279 278 277 277 277 276 277 277 277 277 276 276 276 276 275 273 271 274 274 274 275 277 277 276 276 280 280 282 283 284 286 287 287 288 288 290 291
279 279 279 279 278 278 278 277 277 276 276 276 276 276 276 276 274 274 274 275 274 273 271 272 273 275 274 274 275 275 276 276 276 280 282 284 285 285 285 286 287 287 288
279 279 279 278 278 277 277 277 276 276 276 276 276 275 275 276 274 274 273 273 273 272 271 270 273 273 273 274 274 274 276 277 276 279 283 283 284 284 284 285 285 286 286
278 278 278 277 277 277 276 276 276 276 275 275 275 275 275 274 274 273 272 272 272 274 272 271 271 273 274 274 274 275 275 276 277 280 281 282 282 283 284 284 284 284 284
278 278 278 277 277 276 276 276 276 275 275 275 275 275 275 274 274 273 273 272 273 272 272 271 271 272 273 275 275 274 273 275 275 277 279 280 281 281 282 282 283 282 282
278 278 277 276 276 275 276 275 276 275 275 275 275 276 275 275 277 276 274 273 272 271 271 271 271 272 272 273 272 273 272 273 274 275 274 276 275 275 277 280 280 281 282
277 277 277 276 274 275 280 281 277 275 276 275 274 275 275 274 276 279 280 280 278 269 260 265 272 273 272 272 272 272 272 270 268 274 272 272 274 274 276 277 280 282 282
278 277 276 275 275 275 281 283 282 276 275 275 275 275 275 275 274 273 276 278 278 278 279 277 274 273 272 272 273 272 271 270 269 271 271 269 273 273 275 277 280 281 282
277 277 276 276 275 275 281 283 283 277 276 275 274 274 274 274 274 273 273 272 273 274 275 276 275 274 274 276 274 272 271 269 269 270 272 267 270 270 273 273 278 279 281
277 276 277 275 275 275 281 283 282 276 275 274 274 274 274 273 276 278 275 271 272 274 278 279 279 279 278 277 275 271 264 264 264 266 269 268 269 268 270 271 274 278 279
278 277 276 275 275 274 279 282 282 275 271 273 273 274 276 275 277 278 275 272 271 271 272 268 269 270 271 270 273 270 268 264 264 263 269 266 267 268 265 270 272 272 273

GFSMA_sfc_thetae_057.txt.gz
Theta_e
328 327 324 322 321 319 315 312 311 310 309 309 308 306 304 302 300 302 306 311 316 314 315 318 320 321 321 321 321 322 323 322 320 321 322 323 323 325 326 324 323 324 323
324 321 319 318 317 316 314 313 311 308 307 310 308 305 302 300 300 298 297 298 309 308 308 313 314 317 318 319 319 320 322 322 320 319 318 319 320 321 322 323 326 325 324
319 317 316 314 314 314 312 309 306 305 304 304 303 301 299 298 296 295 293 293 294 300 303 307 309 310 312 314 316 316 316 316 314 314 315 315 316 317 318 319 320 322 323
316 314 312 310 310 308 306 304 301 300 298 299 298 297 296 294 292 291 290 290 290 290 293 301 303 304 307 310 313 313 313 313 312 312 311 311 312 313 313 314 315 317 319
309 309 306 305 305 302 297 295 293 295 297 297 296 294 292 289 286 288 287 287 287 287 287 293 295 298 303 307 310 311 311 311 310 309 308 308 309 309 310 310 311 313 314
301 301 299 300 298 294 291 290 291 290 292 294 294 291 289 288 285 284 284 286 285 285 285 285 285 288 299 303 305 306 307 307 306 305 305 305 305 306 306 308 309 311 312
293 293 292 292 292 291 289 289 288 292 287 288 289 289 288 285 284 283 282 282 283 284 284 284 285 286 288 295 297 300 302 303 303 302 302 302 303 304 305 306 307 308 309
290 291 290 288 287 287 286 286 286 284 283 283 291 289 286 289 286 283 282 283 281 282 283 284 284 285 284 284 288 295 298 300 300 301 300 301 301 302 303 304 305 306 307
288 288 286 286 285 285 284 283 283 283 281 282 282 287 281 284 281 286 281 280 280 280 281 282 283 284 283 282 285 287 293 295 296 297 298 298 299 300 301 302 303 304 305
285 285 285 284 283 283 283 282 283 282 282 280 282 282 280 280 277 276 279 279 280 280 279 280 280 282 281 281 283 286 290 291 292 293 294 296 297 298 299 300 301 302 303
284 284 283 283 283 283 282 282 282 282 282 280 280 280 279 278 278 276 275 276 278 278 279 279 279 279 279 279 280 283 288 289 290 290 292 292 294 295 297 298 299 300 301
282 282 282 282 282 282 282 282 281 281 281 281 280 280 279 277 276 275 274 275 275 277 278 278 278 278 278 278 280 284 285 287 288 289 289 290 291 292 294 296 297 298 300
280 280 281 281 281 281 281 281 280 280 280 280 279 279 279 279 279 278 276 275 274 276 277 277 278 278 278 277 278 283 282 284 286 288 288 288 289 290 291 293 294 295 296
281 280 280 280 280 281 280 280 279 279 279 278 278 278 279 278 279 279 277 275 273 274 274 275 276 276 276 277 279 282 278 282 285 286 287 287 288 289 290 291 292 292 293
281 280 280 280 280 280 280 279 279 278 278 277 277 278 278 277 278 277 277 277 275 271 271 273 274 276 276 276 277 277 276 279 283 284 285 286 287 288 289 289 290 291 292
281 280 280 280 279 279 278 278 277 278 277 276 277 277 277 276 276 276 276 276 275 273 271 274 274 274 275 276 277 276 276 280 280 282 284 285 286 287 287 288 288 289 290
280 280 280 279 279 278 278 277 277 277 277 276 276 276 276 276 274 274 274 274 274 273 271 272 273 274 273 274 275 276 276 276 277 281 283 284 285 285 286 286 287 288 288
280 280 279 279 279 278 277 277 277 276 276 276 276 275 275 276 274 273 273 273 273 273 271 270 272 272 272 274 274 274 276 278 277 279 283 283 284 284 284 285 285 285 286
279 279 279 279 278 278 278 277 277 276 276 275 275 275 275 274 273 273 272 272 272 274 272 271 271 272 273 274 274 275 275 275 277 279 281 281 281 282 283 283 283 283 283
279 279 279 278 277 277 277 277 277 276 275 275 275 275 275 274 274 273 273 272 273 272 272 271 271 271 273 274 274 273 272 274 274 276 277 278 279 279 280 281 281 281 281
279 279 278 277 277 277 277 277 276 275 275 274 275 276 275 275 278 276 274 273 272 272 271 270 271 271 272 273 272 273 271 273 273 273 273 273 273 273 274 277 278 279 282
278 278 278 277 276 277 281 282 278 276 276 275 274 275 275 275 278 280 281 281 277 270 264 263 271 272 273 273 273 272 272 270 268 273 271 270 272 272 273 274 278 280 280
278 278 277 277 277 277 282 284 283 276 275 275 275 275 275 275 275 274 277 280 280 281 281 276 274 274 273 273 273 272 272 270 269 271 269 267 271 270 272 274 277 278 280
278 277 277 277 277 277 282 284 284 277 275 275 275 275 275 275 274 273 273 272 273 273 274 275 275 275 274 275 276 274 271 267 268 269 270 265 269 269 271 271 276 277 279
278 278 279 278 277 277 282 284 283 278 277 276 276 275 274 274 276 279 275 271 272 273 277 280 281 281 281 280 278 272 263 257 263 266 269 267 268 267 269 269 272 276 277
279 279 278 278 278 278 281 284 283 278 275 275 275 275 277 275 277 279 276 271 270 272 273 271 272 274 274 271 274 271 268 262 263 261 269 266 266 267 264 268 270 270 271

GFSMA_sfc_thetae_060.txt.gz
Theta_e
326 324 324 322 319 315 312 309 310 308 307 306 304 302 299 297 296 297 301 306 310 314 317 318 318 320 320 320 319 320 319 317 317 316 316 317 317 318 319 320 321 324 325
326 322 320 318 316 316 314 313 311 309 308 305 301 299 296 294 293 292 292 294 304 307 310 312 313 316 317 318 317 317 316 316 314 313 313 312 313 314 314 315 316 318 319
323 320 317 315 314 314 311 308 306 307 304 300 297 295 292 291 289 289 289 288 289 299 302 307 309 311 314 315 315 314 314 313 311 310 310 310 310 310 311 311 312 314 315
319 317 314 312 312 309 307 304 304 302 299 296 293 291 288 288 287 286 286 287 286 286 293 301 305 308 310 310 310 310 309 309 308 307 306 307 307 308 308 309 310 311 312
314 312 310 308 306 303 301 300 297 298 295 292 288 286 285 284 284 285 284 285 285 284 285 294 297 299 301 304 305 307 307 306 305 305 305 305 305 306 306 307 308 308 309
307 307 305 302 298 296 295 294 295 292 294 289 287 285 284 283 283 282 282 284 284 283 284 284 284 286 295 299 302 304 305 304 304 303 303 303 304 304 304 305 306 306 307
301 302 300 297 294 292 292 295 294 292 288 288 286 285 285 282 281 281 281 281 282 283 283 284 283 283 284 293 297 300 302 303 302 301 301 301 302 302 303 304 304 305 305
296 296 295 290 289 289 290 290 291 284 283 284 287 286 284 286 284 281 281 282 280 281 282 283 282 281 281 282 288 295 298 299 300 300 299 299 300 301 301 302 303 303 304
291 290 289 287 286 287 289 286 285 286 282 281 283 289 283 285 282 284 279 279 279 279 279 281 281 280 280 280 283 288 293 295 296 297 297 298 298 299 300 301 301 301 302
288 287 286 285 284 283 283 283 282 282 282 280 280 281 279 280 278 276 277 277 278 279 278 279 278 278 278 279 282 287 289 291 292 293 294 295 296 297 298 299 299 300 300
286 284 284 283 282 282 281 282 281 281 281 280 280 279 278 277 277 275 274 275 277 278 278 278 278 277 278 278 278 283 287 289 290 291 291 292 293 295 296 297 298 298 298
282 282 282 281 281 281 281 280 280 281 280 280 280 279 278 277 275 275 274 274 275 277 278 278 277 277 277 277 280 284 285 287 289 289 290 290 291 292 294 295 296 296 297
280 280 281 281 281 281 281 281 280 280 280 280 279 279 279 278 278 277 275 274 274 276 277 277 278 277 278 277 277 282 282 285 287 288 289 289 290 291 291 293 294 294 295
282 281 280 280 280 280 280 280 280 279 279 279 278 278 278 278 278 278 276 275 273 274 274 274 276 276 276 277 279 282 277 281 286 287 288 288 289 289 290 291 292 292 293
282 280 280 279 280 280 280 279 279 279 279 278 278 278 278 277 278 278 278 277 274 271 272 273 274 276 276 276 277 277 276 279 283 284 286 287 288 288 289 289 290 291 292
281 280 279 280 279 279 279 279 278 278 278 278 278 278 277 277 277 277 277 276 276 273 271 273 274 274 275 276 277 277 276 280 280 282 284 285 287 287 287 288 288 289 289
280 280 280 280 279 279 279 279 279 278 278 277 277 277 277 277 275 275 275 275 274 274 271 272 273 273 273 273 275 275 276 276 276 280 282 284 285 285 285 286 286 286 287
280 280 280 280 279 279 279 279 278 278 278 277 277 277 275 276 274 273 273 273 273 273 272 270 272 272 272 273 274 274 276 277 276 279 282 283 283 283 283 284 284 284 284
280 280 280 280 279 279 278 279 278 278 278 277 277 276 275 275 273 273 272 272 272 274 272 271 270 272 272 274 274 275 275 274 276 279 280 280 280 281 281 282 282 282 282
279 279 280 279 279 279 278 278 278 277 277 277 276 276 275 275 274 273 273 272 272 271 271 271 270 271 272 274 274 273 272 274 274 276 277 277 278 278 279 280 280 279 280
279 279 279 278 278 278 278 278 277 277 277 276 276 276 275 275 278 276 274 273 272 271 271 270 270 270 271 272 272 273 272 272 273 274 272 273 273 273 273 276 276 278 280
279 279 278 278 277 278 282 283 279 277 277 276 275 275 275 276 278 281 281 280 276 271 264 265 271 271 272 273 272 272 271 271 269 273 271 270 272 271 272 273 277 279 280
279 278 278 278 277 277 283 284 283 277 277 276 276 276 275 276 275 275 279 282 282 283 281 274 273 273 273 273 273 272 272 271 270 272 270 267 271 269 272 273 276 278 279
278 278 278 278 278 278 283 285 285 278 277 276 276 276 275 275 275 274 273 273 274 274 276 276 275 275 274 275 275 275 273 267 269 270 270 265 269 268 271 271 276 277 278
278 278 279 278 278 278 283 284 284 281 278 276 276 276 275 275 277 280 275 272 273 274 277 280 281 281 282 283 282 271 260 257 264 267 269 266 268 267 268 269 271 275 276
279 278 278 279 278 279 283 284 285 282 278 278 277 276 278 277 279 280 277 274 272 273 272 271 274 276 278 274 277 274 269 260 263 261 268 265 266 267 263 268 269 269 270

GFSMA_sfc_thetae_063.txt.gz
Theta_e
329 326 326 323 318 316 316 314 311 309 306 304 301 299 300 299 299 300 305 308 311 314 317 319 320 319 319 318 317 316 315 314 312 311 311 311 312 312 313 313 315 316 317
327 325 324 320 318 316 316 313 311 306 303 300 298 296 294 293 293 293 295 300 305 308 312 315 317 317 316 315 314 313 312 311 310 309 309 309 309 310 310 311 311 312 313
326 323 321 317 316 315 311 310 307 303 299 296 295 293 291 291 290 290 290 291 295 304 307 310 310 311 311 312 311 311 310 309 308 308 307 307 308 308 308 309 309 310 310
325 322 319 315 315 311 309 308 304 299 296 293 291 290 290 290 289 289 289 290 290 293 299 302 303 306 308 309 309 309 308 307 306 306 306 306 306 306 307 307 307 308 308
320 319 316 312 310 308 306 304 301 297 291 289 288 288 288 288 288 288 288 288 288 288 289 294 297 299 303 305 306 307 307 306 305 304 304 304 304 305 305 305 306 306 306
315 315 312 308 306 302 302 301 298 295 291 289 286 286 286 287 287 287 287 287 287 287 287 286 287 290 297 301 303 304 305 304 303 302 302 302 303 303 303 304 304 304 305
310 310 308 302 303 301 301 299 297 291 289 289 287 286 285 286 286 286 286 287 286 286 286 285 286 286 287 295 299 301 302 302 302 301 301 301 301 301 302 302 303 303 303
306 305 302 298 297 298 298 298 295 291 289 290 289 290 285 287 285 285 285 285 285 286 285 284 284 284 285 288 292 296 298 299 300 300 299 299 299 300 300 301 301 302 302
300 300 297 294 296 300 298 298 295 292 289 288 291 295 289 290 288 286 283 284 284 285 284 283 283 283 283 285 288 290 294 295 297 297 297 297 298 299 299 300 300 300 301
295 296 292 293 295 299 297 296 294 293 291 289 285 284 286 290 287 282 283 283 283 283 284 283 282 282 283 284 285 288 290 292 293 294 294 295 296 297 298 299 299 300 300
291 291 290 290 292 294 295 293 289 289 291 288 286 284 284 283 283 283 280 281 282 283 284 283 283 282 282 282 284 285 287 289 291 291 292 293 294 295 297 298 298 299 299
287 287 287 288 288 289 290 289 288 288 287 286 286 285 284 284 282 282 281 280 281 282 283 283 282 282 282 281 282 284 285 287 289 290 290 291 292 293 295 296 297 297 297
285 285 285 286 285 286 286 286 286 285 286 286 285 284 284 284 283 282 281 279 279 280 281 282 282 282 281 282 281 283 282 285 287 289 289 290 291 292 292 293 294 294 294
287 285 285 285 284 284 284 285 285 284 284 284 284 284 283 283 283 282 281 280 278 278 279 279 281 282 282 281 281 282 281 282 286 287 288 288 289 290 290 291 291 292 292
286 284 284 284 284 284 284 284 283 283 283 283 283 282 282 282 282 283 282 281 281 277 277 279 279 281 281 281 280 281 280 281 284 285 286 287 288 289 289 289 290 290 291
284 282 282 283 283 283 282 283 282 282 282 282 281 281 280 281 281 281 281 281 280 279 278 279 280 280 280 279 280 280 280 281 281 283 284 285 287 287 287 287 288 288 289
283 282 282 282 282 282 282 282 282 281 281 281 281 280 280 280 279 279 279 279 279 279 278 278 278 278 278 278 279 279 280 280 280 281 282 284 285 285 285 285 286 286 286
283 282 282 282 282 281 281 281 280 281 280 280 280 279 278 278 278 278 278 277 278 278 277 275 276 277 276 278 278 278 278 279 279 279 282 283 283 283 283 283 284 284 284
282 281 281 281 281 281 281 281 281 280 280 279 279 279 278 278 277 277 277 276 277 276 276 275 275 276 276 277 277 278 278 279 278 280 281 280 281 281 281 282 282 282 281
281 281 281 281 281 280 280 280 280 279 279 279 279 279 278 278 278 277 276 276 276 275 275 274 274 274 275 277 277 276 276 278 277 278 278 278 279 279 279 280 279 279 280
281 281 281 280 280 280 279 279 279 279 279 278 278 278 278 278 279 278 277 276 276 275 275 274 274 274 275 275 275 276 275 276 277 277 276 277 276 275 276 277 276 278 280
280 280 280 279 279 279 283 283 280 279 278 277 277 277 278 279 280 282 282 280 278 275 273 274 275 274 275 275 276 275 275 274 273 277 274 274 275 274 275 275 277 279 280
279 279 279 279 279 279 285 285 283 279 278 278 277 277 277 277 278 278 282 283 283 282 280 276 275 276 276 276 276 276 275 274 273 275 272 271 274 273 274 274 277 278 278
279 279 279 279 279 279 285 285 284 279 279 278 278 277 277 277 277 276 276 276 277 278 280 281 280 279 278 278 278 277 276 274 273 273 272 268 273 271 273 273 276 276 277
279 280 280 279 279 279 285 286 284 281 278 279 278 277 277 277 279 281 277 275 275 276 278 281 282 282 282 283 283 279 272 271 272 273 271 269 270 270 271 271 273 275 276
280 279 279 279 279 279 285 286 285 283 281 281 279 278 279 278 280 281 280 277 275 276 276 276 276 278 280 279 281 278 275 271 270 267 271 268 269 268 266 270 271 271 271

GFSMA_sfc_thetae_066.txt.gz
Theta_e
330 329 326 322 319 319 320 317 314 313 310 308 309 308 306 307 309 308 309 311 316 318 320 320 319 317 316 315 314 313 312 311 310 310 310 310 310 311 311 311 311 312 312
334 327 327 325 321 318 319 315 309 305 302 303 302 300 299 300 302 303 305 308 312 313 314 315 315 315 315 314 312 312 311 310 309 308 308 308 308 309 309 309 309 310 310
335 330 326 324 319 318 316 310 305 300 298 298 298 296 296 296 295 296 298 303 304 306 308 310 311 312 312 311 311 310 309 308 308 307 306 307 307 307 307 307 307 308 308
333 330 322 320 316 312 312 307 304 297 296 296 296 295 294 294 294 294 294 296 298 299 302 305 307 308 308 309 309 308 308 307 306 305 305 305 305 305 306 306 306 306 306
327 325 321 318 317 312 313 307 300 296 293 294 294 294 293 293 292 292 292 292 292 294 296 299 300 302 304 306 307 307 306 305 304 304 304 303 304 304 304 304 305 305 305
324 323 318 315 314 310 307 304 297 294 293 293 291 291 291 292 292 292 291 290 291 291 291 292 294 297 299 302 304 305 305 304 303 302 302 302 302 303 303 303 303 303 303
319 318 314 311 311 308 305 302 294 292 292 293 291 289 289 290 290 290 291 290 290 289 290 290 291 291 293 297 300 302 303 303 302 301 301 301 301 302 302 302 302 302 303
315 315 312 310 310 308 303 299 294 292 293 294 294 291 287 288 288 289 290 289 289 289 288 288 288 289 291 292 294 297 299 301 301 300 299 299 300 300 301 301 301 302 302
309 311 310 307 307 304 300 298 297 298 293 294 296 299 292 292 287 287 287 288 288 288 288 287 287 287 288 290 291 292 294 296 297 297 298 298 298 299 300 300 301 301 301
303 305 303 302 301 303 301 300 300 301 297 294 295 295 295 297 292 284 286 287 287 287 288 286 286 286 287 288 288 288 290 292 293 294 295 296 297 298 299 299 300 300 300
298 300 300 298 300 302 304 305 302 302 300 299 297 292 291 291 294 289 284 283 286 287 288 287 287 286 286 287 288 287 288 290 291 292 292 293 294 296 297 298 298 299 299
295 294 294 296 300 302 304 305 302 299 300 300 298 294 291 290 288 288 286 285 285 285 286 286 286 287 287 286 284 285 285 287 289 291 291 291 292 294 295 296 297 297 297
295 296 291 292 295 298 302 302 300 299 299 297 296 292 291 290 289 288 287 284 283 284 285 287 287 286 285 286 285 283 283 285 287 289 289 290 291 292 293 294 294 295 295
303 299 292 290 291 294 298 298 298 296 295 294 292 290 289 288 289 287 286 284 281 283 284 285 286 286 286 285 283 282 285 283 285 287 288 288 290 290 291 292 292 292 293
299 291 289 288 289 290 294 294 293 290 291 290 290 289 288 286 286 286 286 287 286 282 281 283 283 285 285 284 283 284 284 283 285 286 286 287 288 289 290 290 290 291 292
291 287 286 286 287 288 291 291 290 289 289 288 287 286 286 285 285 285 284 284 285 285 283 283 283 284 284 282 283 283 284 282 284 284 284 285 287 288 288 288 289 289 290
286 286 285 285 285 286 288 289 288 287 287 285 286 285 284 284 282 282 283 283 283 284 283 282 282 283 282 282 283 284 284 283 284 284 283 284 286 286 286 286 287 287 287
287 285 284 284 284 284 287 287 286 286 286 284 284 283 282 281 281 281 282 281 282 282 282 280 281 280 281 283 283 282 281 282 283 283 283 284 285 284 284 285 285 285 285
286 283 283 283 282 283 284 286 286 285 285 284 283 283 282 281 280 280 280 281 281 279 280 279 279 280 281 282 281 282 282 283 282 283 283 283 282 282 283 283 283 283 282
285 283 283 282 282 282 282 284 284 284 284 284 283 283 281 280 280 280 280 280 280 279 279 278 278 279 280 281 280 279 280 283 282 282 282 281 280 282 282 282 281 280 280
284 283 282 282 282 281 281 281 283 283 283 282 282 281 281 281 282 282 280 281 280 279 279 278 278 279 279 279 278 280 279 280 281 282 280 280 280 280 280 280 279 279 281
283 282 281 281 280 280 284 285 284 283 282 281 280 280 281 280 281 283 283 282 281 280 280 280 279 278 278 279 279 279 278 277 276 283 279 278 280 278 279 279 279 280 280
282 281 281 281 280 280 285 285 285 282 282 281 280 280 279 279 280 280 283 284 283 283 283 280 278 278 279 280 281 279 278 278 277 280 278 275 279 277 278 277 279 280 279
281 281 280 280 281 280 286 286 284 282 282 281 280 282 281 279 279 279 279 280 281 282 283 283 282 281 282 283 281 280 279 279 279 278 277 272 276 275 277 277 278 278 278
281 282 281 280 280 280 286 286 283 281 280 279 281 282 281 280 280 282 279 279 279 279 281 283 284 284 284 284 283 282 280 277 275 277 278 273 274 273 274 274 276 277 277
281 280 280 281 281 281 286 286 284 281 280 280 281 282 281 281 282 283 281 281 278 279 279 279 279 280 281 281 282 281 280 276 276 275 276 271 273 272 269 274 273 273 273

GFSMA_sfc_thetae_069.txt.gz
Theta_e
331 330 324 321 321 322 320 318 317 315 313 313 311 310 311 312 310 311 312 314 319 319 319 319 318 317 316 315 314 313 312 311 310 310 310 310 310 310 310 310 310 310 310
333 329 323 320 321 321 318 316 314 311 309 308 304 304 305 306 306 307 310 308 313 314 315 316 316 315 315 314 312 312 311 310 309 308 308 308 308 308 308 308 308 309 309
332 329 324 322 322 321 317 311 306 304 302 301 300 299 299 299 300 302 305 304 305 309 311 312 312 313 313 312 311 310 309 308 308 307 307 307 307 307 307 307 307 307 307
334 329 327 325 320 318 310 306 303 300 298 298 298 297 296 296 296 296 299 299 301 302 305 307 308 309 310 310 310 309 308 307 306 306 306 305 306 306 306 306 306 306 306
335 330 326 322 318 313 310 303 301 301 297 296 296 296 295 294 294 293 293 294 296 298 299 301 303 304 306 307 308 308 307 306 305 304 304 304 305 305 305 305 305 305 305
333 330 324 318 315 312 306 304 299 299 296 294 293 293 293 293 294 293 291 292 292 293 293 295 298 298 301 304 305 306 306 305 304 303 303 303 304 304 304 304 304 304 304
327 325 320 316 314 311 307 304 296 293 293 294 291 291 291 292 291 292 292 291 290 290 291 292 293 294 295 299 301 303 304 304 303 302 302 302 302 302 303 303 303 303 303
323 321 317 314 312 308 303 297 294 293 292 293 294 292 287 288 289 290 291 290 289 290 289 289 290 291 293 293 295 298 299 301 301 301 301 301 301 301 302 302 303 303 303
316 316 315 313 310 307 302 297 295 296 291 293 296 298 290 290 287 288 289 289 289 289 288 288 288 289 290 291 291 292 294 296 297 298 298 299 299 300 301 301 301 302 301
310 312 313 312 310 308 304 298 298 297 295 293 297 299 299 295 289 283 287 288 289 288 288 287 287 287 288 289 289 289 291 292 293 294 295 296 297 298 299 300 300 300 300
305 307 307 308 307 306 304 300 297 298 297 296 297 296 296 297 298 289 283 284 286 287 288 287 287 286 287 288 288 287 288 290 291 292 292 293 295 296 297 298 299 299 299
300 300 302 304 305 304 302 300 299 300 298 299 299 296 294 292 290 290 287 284 283 285 287 287 286 287 287 286 285 285 285 287 289 290 290 291 292 293 295 296 297 297 298
297 297 298 301 302 303 303 303 300 300 298 299 299 296 295 294 292 291 289 285 284 285 285 287 287 287 286 286 286 283 284 285 287 289 289 290 291 292 293 294 295 295 296
302 299 296 297 300 302 303 302 300 299 298 298 299 295 292 291 290 289 288 284 282 282 283 285 287 287 286 286 284 283 284 285 285 288 289 289 290 291 292 292 293 293 294
304 301 297 295 295 298 300 300 298 297 298 297 296 292 290 289 289 288 288 288 285 280 280 284 283 286 286 286 285 284 284 285 285 287 287 288 288 290 291 291 291 292 293
302 300 296 294 293 295 294 296 294 293 294 293 291 289 288 287 287 287 286 285 286 285 283 284 284 284 285 283 284 282 283 284 285 286 286 286 287 288 289 289 290 291 291
298 294 291 290 290 289 290 291 291 290 290 288 288 287 286 286 285 284 284 284 284 284 284 281 283 284 283 282 282 282 284 283 283 285 286 286 286 287 288 288 288 289 289
292 292 290 288 287 287 288 289 288 288 287 285 286 285 283 283 283 283 284 283 283 283 283 281 281 280 280 283 283 282 281 282 282 284 286 286 286 286 286 286 287 287 286
289 287 287 286 285 285 285 286 286 286 286 285 284 283 282 282 281 282 282 282 282 280 281 281 280 280 280 281 281 281 282 282 283 285 286 285 285 285 285 285 285 285 284
287 286 286 285 284 284 284 283 283 285 284 284 284 283 282 281 282 282 281 281 281 280 280 279 279 279 279 281 280 278 279 281 281 282 283 284 284 283 284 285 284 283 282
287 286 284 284 283 282 282 283 283 283 283 282 282 282 282 283 285 283 280 280 280 280 280 279 278 278 278 279 278 280 278 279 280 281 281 280 279 280 280 282 281 282 282
285 284 283 282 282 281 285 287 284 282 282 281 281 281 281 282 284 284 283 284 282 281 280 280 279 278 279 279 279 279 278 277 276 281 278 278 280 279 279 279 282 282 282
284 283 282 282 281 281 286 287 286 282 281 281 281 281 281 282 281 281 284 284 284 284 284 281 279 280 279 279 280 279 279 278 277 279 278 276 279 277 278 278 281 281 281
283 282 282 282 281 281 286 287 285 281 281 281 281 281 282 280 280 280 280 281 281 282 282 282 281 280 280 281 282 281 279 278 278 279 279 273 276 275 277 277 280 280 280
283 283 283 282 282 281 286 287 284 282 281 281 281 283 283 281 283 283 279 278 279 280 283 285 285 286 286 286 285 281 279 278 277 277 279 276 276 274 274 274 276 278 278
283 282 282 282 282 281 286 286 283 282 280 280 282 283 283 284 285 285 281 279 278 279 279 279 279 280 282 281 283 280 279 276 276 275 275 273 273 273 270 274 274 273 273

GFSMA_sfc_thetae_075.txt.gz
Theta_e
315 314 313 313 310 309 310 310 309 307 305 306 305 305 304 305 305 306 307 315 320 319 319 318 318 317 316 315 314 313 313 312 312 311 311 311 311 311 310 310 310 310 310
317 315 314 313 311 312 311 309 307 304 302 303 301 302 301 303 301 301 302 306 316 318 317 317 317 316 315 314 313 312 312 311 310 310 310 309 309 309 309 309 309 308 308
320 318 316 314 314 313 313 310 307 301 300 298 296 297 298 299 299 298 298 299 300 310 316 315 315 314 314 313 312 311 311 310 309 309 308 308 308 308 308 307 307 307 307
325 319 316 315 314 311 308 307 302 298 294 295 293 291 291 292 293 294 295 296 296 298 305 311 311 312 312 311 311 310 309 308 308 308 307 307 307 307 306 306 306 306 306
327 321 318 316 313 308 305 303 299 298 294 292 292 291 289 288 289 290 291 295 296 294 294 303 306 309 309 310 310 309 307 307 306 306 305 305 305 305 305 305 305 305 305
328 324 320 317 315 308 303 302 298 296 294 292 291 290 289 287 286 286 286 291 292 291 290 292 292 298 307 307 307 307 306 305 304 304 304 303 303 304 304 304 304 304 304
329 325 322 317 313 308 304 301 297 295 293 292 290 289 289 286 285 285 285 285 286 286 287 289 289 289 294 303 304 305 305 304 303 302 302 302 302 302 302 302 302 302 303
329 326 323 317 313 309 303 300 297 294 292 292 289 288 284 284 286 285 284 285 283 285 285 286 286 288 288 289 295 301 302 302 301 300 300 299 300 300 300 301 301 301 302
328 326 322 318 314 310 304 300 297 295 292 292 291 292 285 284 281 283 283 283 282 282 282 284 285 287 287 287 290 292 298 298 298 297 297 297 297 297 298 299 300 300 301
321 323 321 318 315 312 306 301 299 298 296 291 292 294 294 287 282 278 282 283 282 282 281 282 283 285 286 285 288 290 293 294 294 293 294 294 294 296 297 298 299 299 300
314 318 318 317 315 313 308 303 299 299 298 295 295 294 293 289 286 283 280 281 281 281 282 282 281 282 284 284 284 287 292 292 292 292 292 292 293 294 295 296 298 299 299
308 312 312 315 315 313 309 304 300 299 298 298 296 297 294 291 287 283 281 281 281 282 282 281 281 282 282 282 286 288 290 291 291 291 291 291 292 293 294 295 297 298 299
305 308 310 312 312 312 308 305 301 300 298 298 297 298 298 295 292 288 284 282 280 281 280 281 282 282 283 282 282 287 289 290 290 290 291 291 292 292 293 295 296 297 297
304 306 307 310 311 310 308 305 302 300 300 298 298 298 297 296 292 288 284 282 279 279 280 279 282 283 283 282 283 288 282 288 290 290 290 291 292 292 293 294 295 296 296
303 304 305 306 306 306 306 304 302 299 299 298 298 297 296 294 290 289 286 285 282 278 278 278 279 283 283 283 284 284 282 285 290 290 290 290 291 291 292 293 294 295 295
302 300 302 304 304 304 304 303 301 300 298 298 298 296 296 293 292 289 287 285 283 282 279 280 280 281 283 283 284 283 281 285 287 288 289 290 290 291 291 292 293 293 293
300 298 297 299 300 301 301 301 301 299 298 298 297 295 294 291 289 287 285 284 284 283 281 279 280 281 281 281 281 283 282 281 281 287 288 289 289 290 291 291 291 291 291
296 297 295 296 297 298 299 299 298 297 296 295 294 292 292 287 287 285 285 283 283 283 281 278 278 279 280 281 280 279 280 281 280 284 287 288 289 290 290 290 290 290 289
294 291 292 292 293 294 295 296 296 295 295 295 293 291 288 286 285 284 284 283 282 281 281 279 277 278 278 279 279 279 280 280 280 284 287 288 289 289 289 289 289 288 288
291 288 289 289 288 289 290 291 292 292 292 291 289 289 286 286 285 284 283 282 281 281 280 279 277 277 278 279 278 278 278 279 279 281 283 284 285 286 288 288 287 286 285
288 287 285 285 285 287 288 288 289 289 288 286 286 286 285 285 285 285 283 282 281 280 279 279 277 277 277 277 277 278 278 278 279 280 279 279 279 279 279 283 283 284 285
286 285 284 284 284 285 288 290 289 287 287 285 283 283 283 283 284 286 286 286 283 280 278 278 278 277 278 279 279 278 278 277 275 280 277 276 278 278 278 278 283 284 285
284 283 283 282 284 285 288 290 289 285 285 285 284 282 282 283 283 284 286 286 285 286 284 281 279 279 279 279 279 278 278 278 277 279 277 276 278 277 278 279 283 283 283
282 281 281 281 283 283 287 290 289 284 284 284 283 282 282 283 283 283 283 282 282 283 284 283 282 281 281 281 281 281 280 278 277 278 278 271 276 275 277 276 281 281 280
278 278 279 279 282 282 286 289 288 283 282 282 282 283 283 283 285 286 282 281 281 281 285 286 285 285 284 284 283 280 276 274 273 275 277 275 274 273 273 274 274 277 276
280 282 283 283 283 282 286 288 287 282 281 280 281 282 283 284 286 286 282 282 281 281 281 281 282 284 285 285 287 283 279 273 273 270 274 271 271 270 267 270 271 270 270

GFSMA_sfc_thetae_078.txt.gz
Theta_e
314 312 311 311 311 310 310 309 307 306 306 305 305 305 304 303 303 304 308 316 320 321 320 318 318 316 316 316 315 314 314 313 313 312 312 312 311 311 311 311 310 310 310
315 313 311 310 309 308 309 307 305 303 303 303 303 303 302 300 300 301 302 308 318 320 318 318 317 316 315 315 314 314 313 312 311 311 310 310 310 309 309 309 308 308 308
315 314 312 311 309 310 309 307 304 301 299 300 300 301 300 298 298 298 298 300 302 311 317 315 315 315 314 314 313 312 312 311 310 310 309 309 308 308 308 307 307 307 307
318 316 313 313 313 310 308 305 302 300 298 298 296 297 296 295 295 296 297 297 297 299 306 314 313 313 313 312 312 311 310 309 309 308 307 307 307 306 306 306 305 305 305
321 318 316 315 314 310 308 305 300 299 296 293 293 292 291 293 292 294 295 296 296 295 295 304 307 312 311 311 311 310 309 308 307 306 305 305 305 304 304 304 304 304 304
324 320 318 316 314 309 306 304 300 296 295 293 292 289 289 289 289 291 292 294 293 292 292 293 294 298 310 310 310 309 308 307 306 305 304 303 303 303 302 302 303 302 302
326 322 319 317 314 309 306 303 298 294 292 292 289 288 288 288 286 288 288 289 290 289 290 290 291 292 296 307 308 309 308 307 305 303 303 302 301 301 301 301 301 301 301
328 325 321 317 315 310 305 301 299 295 292 292 287 288 284 286 285 287 286 286 286 286 287 288 288 290 290 290 294 307 307 306 305 303 301 300 299 299 299 299 299 300 300
329 326 323 319 316 312 305 302 298 297 292 291 291 291 284 285 284 284 285 285 283 283 284 285 286 288 288 288 295 298 303 304 303 302 300 299 298 297 297 298 299 299 300
328 326 324 320 316 313 308 303 301 299 297 291 291 293 291 288 285 280 284 284 284 283 282 283 283 286 286 286 290 292 298 300 300 299 298 297 296 296 297 297 298 299 299
316 324 323 319 316 314 311 305 301 300 298 296 294 294 292 288 287 285 281 282 281 283 283 284 284 285 286 286 285 289 296 297 296 296 295 294 295 295 296 296 298 299 299
313 313 316 319 317 315 312 307 304 301 300 300 296 298 295 293 288 285 282 282 282 283 284 284 282 284 285 285 286 289 294 295 295 294 294 293 293 294 295 296 297 298 299
305 311 311 313 315 315 313 309 305 302 302 300 299 298 298 299 292 291 286 283 282 283 283 284 284 284 285 285 285 289 291 293 294 294 293 293 293 294 294 295 296 297 298
307 305 307 311 314 314 313 309 306 303 302 301 301 299 300 299 295 290 288 284 281 281 282 283 284 284 284 284 285 290 286 291 293 293 293 293 293 294 294 294 295 296 296
304 301 304 305 307 311 311 310 306 303 303 301 300 299 299 299 295 291 289 289 290 280 280 282 281 284 284 283 284 286 284 288 291 292 292 292 292 293 293 294 294 295 296
301 300 301 303 305 307 308 308 307 305 302 301 300 299 298 299 295 293 291 289 288 289 285 284 282 283 284 283 284 284 284 285 288 291 292 291 291 292 293 293 293 294 294
300 300 301 303 303 304 305 305 305 304 300 300 299 298 297 298 295 294 292 289 287 287 287 280 282 283 283 283 282 284 283 283 283 288 289 290 290 291 291 292 292 292 292
297 299 297 299 300 301 302 302 302 302 299 297 297 296 296 297 295 293 292 290 288 285 283 279 279 280 281 282 282 282 281 281 281 284 287 289 290 290 291 291 291 291 290
295 293 294 295 296 297 298 299 300 300 299 298 298 296 297 295 291 291 289 289 287 284 282 281 278 279 279 281 279 280 280 280 280 283 287 288 289 290 290 290 289 289 288
294 291 292 292 292 294 294 294 294 296 296 296 296 295 294 292 291 288 286 285 284 282 282 280 279 278 278 279 280 279 278 280 279 281 283 284 286 286 287 288 288 286 285
291 290 289 289 288 288 288 290 290 292 291 292 289 289 290 288 289 287 286 285 284 283 282 281 278 277 277 278 278 279 278 279 279 280 280 280 280 280 281 283 283 284 284
288 287 286 287 286 287 290 292 291 289 288 289 288 286 285 285 287 288 289 288 286 284 283 281 279 278 278 279 279 279 278 277 276 280 279 278 279 279 280 279 283 284 285
286 285 285 284 284 284 289 291 291 287 287 287 287 285 283 284 284 285 287 287 288 288 286 282 280 280 279 280 280 279 279 279 278 279 278 276 279 278 279 280 283 283 283
283 283 283 282 282 283 288 290 290 287 286 285 285 284 284 283 284 284 284 283 283 284 284 283 283 282 283 282 282 281 280 280 279 280 279 274 277 276 278 278 281 280 279
278 278 280 281 282 283 287 288 289 285 284 283 283 283 283 283 285 286 283 282 282 282 286 285 285 286 287 285 284 281 277 276 276 277 279 276 274 273 274 274 275 276 275
283 282 283 283 283 284 286 288 288 284 282 281 282 283 283 284 286 287 283 281 280 281 282 283 283 285 285 284 286 282 280 277 277 274 275 274 272 271 269 271 271 270 269

GFSMA_sfc_thetae_081.txt.gz
Theta_e
313 312 312 313 313 312 309 308 307 307 306 306 306 306 307 307 307 308 310 317 321 320 319 319 318 316 316 316 315 315 315 314 313 313 313 312 312 311 311 311 311 310 310
313 312 310 311 310 310 308 306 305 305 304 304 304 304 303 302 302 303 306 312 320 321 319 318 318 317 316 315 314 314 314 313 312 312 311 310 310 310 309 309 309 309 308
314 312 310 309 309 308 308 305 303 301 300 301 302 301 300 300 300 300 301 303 307 316 319 318 317 317 315 314 313 313 313 312 311 310 310 309 309 308 308 307 307 307 306
317 314 313 312 312 311 308 304 303 301 299 301 300 300 299 298 297 298 298 299 300 302 312 317 316 315 314 314 313 313 312 311 310 309 308 308 307 307 306 306 305 305 305
318 316 314 313 312 311 309 306 302 301 297 296 296 295 294 294 294 297 297 297 298 298 299 308 312 315 314 313 313 313 311 310 309 308 307 306 306 305 304 304 304 303 303
321 317 316 314 313 311 308 305 301 298 296 295 294 291 291 291 289 293 295 295 296 296 294 295 296 300 313 313 313 313 312 310 308 307 306 305 305 304 303 302 302 301 301
323 319 317 314 313 310 309 305 300 295 292 292 290 289 289 288 286 290 291 293 293 292 293 293 293 294 299 312 312 312 312 311 309 307 306 305 304 303 302 301 300 300 300
326 321 319 316 314 311 308 304 298 295 292 291 291 289 287 287 285 286 286 289 291 290 292 292 292 292 293 293 297 311 311 311 309 307 306 304 303 302 301 300 299 299 300
328 325 322 318 315 313 308 305 301 299 294 292 291 292 285 286 284 286 284 285 288 287 289 291 290 290 290 291 297 303 309 309 309 307 306 304 302 301 300 299 299 299 299
328 327 324 321 317 314 310 306 304 302 301 293 292 292 293 290 287 285 283 285 285 286 287 288 289 288 289 288 293 296 301 307 306 305 304 303 301 300 299 299 298 298 299
326 327 325 322 319 316 313 308 305 302 302 300 295 294 292 289 288 287 285 283 284 286 287 287 288 288 289 289 290 292 300 303 303 302 301 300 299 298 298 298 298 298 299
319 318 323 323 320 316 314 309 306 303 303 303 299 301 295 295 289 285 285 281 284 284 285 286 286 288 288 288 289 292 298 300 301 299 298 297 297 296 297 297 297 298 299
308 317 314 316 318 317 315 312 307 304 303 302 302 298 301 300 301 294 294 286 284 285 283 286 286 287 287 288 288 291 294 297 298 298 297 296 295 295 295 296 296 298 298
310 310 314 317 316 316 315 312 309 306 304 303 302 301 300 301 300 295 294 292 285 284 283 284 286 286 286 287 288 290 288 294 296 296 296 295 295 295 295 295 296 297 297
304 303 306 310 314 314 313 312 309 306 305 303 303 302 301 302 300 298 293 295 295 295 285 284 284 286 286 286 287 287 287 290 294 295 295 295 294 294 294 295 295 296 296
301 300 300 302 303 305 308 311 310 308 305 304 303 302 301 301 301 297 293 293 295 296 295 289 284 285 286 285 286 286 287 287 291 293 293 293 293 293 293 294 295 295 295
299 299 299 299 300 301 302 304 306 307 305 304 303 302 300 301 300 297 294 293 292 293 292 291 284 284 284 284 284 285 286 285 285 290 291 293 292 292 292 293 293 294 293
297 299 297 298 300 302 303 303 303 304 303 301 300 299 299 299 298 298 295 292 292 292 292 292 280 281 282 283 283 283 283 284 283 287 290 290 291 290 291 291 292 292 291
295 294 294 295 299 300 301 301 302 302 302 302 301 298 298 297 295 296 294 292 291 290 288 284 280 281 281 283 281 282 282 281 282 285 288 288 289 290 291 291 291 290 289
294 292 292 293 294 296 296 297 295 298 299 299 299 298 298 297 295 295 292 291 288 286 285 284 281 280 280 280 281 279 278 280 279 282 284 285 287 288 289 289 288 288 286
290 290 289 289 289 292 293 293 291 294 294 294 294 294 294 293 292 294 290 287 285 285 284 284 280 279 279 278 278 279 279 279 279 280 280 280 282 282 282 285 285 285 285
287 287 287 287 287 289 292 293 293 290 290 290 291 289 288 287 288 291 292 290 288 286 284 283 281 280 279 279 280 279 278 278 276 281 279 279 280 280 280 281 284 285 285
286 285 285 285 285 285 291 292 292 288 287 288 288 287 285 285 285 287 290 291 289 291 289 285 282 282 280 280 280 279 279 279 279 279 279 278 280 279 282 282 285 285 284
283 283 283 283 282 283 289 290 290 286 286 286 287 286 286 284 285 285 286 285 285 286 286 284 284 282 282 282 282 282 280 280 279 280 280 276 278 278 280 280 283 283 280
279 279 280 278 281 285 288 289 288 286 286 285 285 285 285 284 285 288 284 283 282 282 286 287 287 286 286 286 284 282 279 278 276 277 280 277 276 276 275 275 276 280 276
283 282 284 284 284 284 286 287 287 285 284 283 282 283 283 284 286 288 283 282 280 281 283 283 284 286 286 286 287 283 280 278 277 275 277 277 273 273 270 272 272 271 270

GFSMA_sfc_thetae_084.txt.gz
Theta_e
312 312 313 313 313 311 309 308 308 308 307 307 307 308 309 311 312 313 313 316 322 321 320 319 317 317 316 316 315 315 315 315 314 314 314 313 313 312 312 312 311 311 310
312 311 311 312 311 310 308 307 306 305 305 305 305 305 305 306 308 309 308 312 320 322 319 319 318 316 316 315 315 314 314 314 313 312 312 312 311 311 310 310 309 309 308
313 311 310 310 310 309 308 305 304 303 302 302 303 304 302 302 302 303 304 306 312 319 320 318 318 317 317 316 315 314 314 313 312 311 311 310 310 309 309 308 308 307 306
316 314 313 313 312 312 309 306 305 303 303 303 302 301 301 301 301 299 299 301 302 306 316 321 318 317 316 316 315 315 314 313 312 311 310 310 309 308 307 307 306 305 304
318 316 314 314 313 311 309 306 303 303 300 299 299 298 298 298 297 297 298 298 299 301 302 311 316 317 316 316 316 315 315 314 312 311 310 309 308 307 307 305 304 304 303
319 317 315 313 312 311 308 306 301 299 298 299 297 294 293 293 293 295 296 297 296 297 298 299 300 304 315 315 315 316 315 314 312 310 309 309 308 307 306 305 303 302 301
321 318 317 314 312 310 310 306 300 297 294 294 293 290 289 288 289 291 292 293 294 294 294 295 296 299 302 315 315 315 316 315 313 311 309 308 308 306 305 304 303 302 301
322 319 318 315 313 311 309 305 302 296 294 294 294 290 292 292 287 289 289 292 292 295 292 293 294 295 298 300 304 314 315 315 314 312 310 308 307 306 305 304 302 301 301
325 323 320 318 314 313 309 307 304 302 298 291 294 296 288 291 288 285 288 289 291 293 293 292 293 293 295 296 303 307 313 313 313 312 310 308 307 306 305 303 302 301 300
328 325 323 320 317 314 312 308 306 305 305 296 294 294 293 292 291 291 286 286 288 289 292 293 293 293 293 294 296 299 302 309 312 311 310 308 307 305 304 303 302 301 300
327 327 325 322 319 317 314 312 308 305 306 304 297 294 295 292 290 288 295 288 284 287 290 291 293 293 292 294 294 296 302 305 309 309 308 307 306 304 303 302 301 300 300
323 325 324 324 321 319 316 313 310 307 306 307 302 303 298 293 294 290 288 294 284 286 287 289 290 292 294 292 294 295 299 303 306 305 305 304 303 302 301 301 300 300 300
311 319 319 321 322 320 318 315 311 308 306 306 305 301 303 301 303 296 295 295 287 287 285 287 287 289 291 292 292 293 296 301 304 304 303 302 301 299 298 298 299 298 298
312 315 316 318 318 319 317 315 312 308 306 305 305 305 303 303 303 301 298 295 292 286 285 287 287 287 289 290 292 293 293 297 302 302 301 300 299 297 297 297 297 297 297
305 305 307 314 315 315 315 315 312 308 307 305 304 304 304 303 302 302 300 299 298 296 297 287 286 287 288 288 290 291 290 293 298 299 298 298 298 297 296 296 296 297 296
301 300 301 302 306 311 313 313 312 309 306 305 304 303 303 303 302 302 300 297 298 297 295 298 287 286 287 287 288 289 289 291 293 295 295 296 297 296 296 295 295 296 295
298 298 298 298 299 300 302 306 308 309 306 304 304 302 302 303 302 301 300 297 296 296 293 297 287 286 285 286 286 287 287 287 287 292 293 295 295 295 295 294 295 294 295
296 296 296 296 297 298 298 299 301 303 304 304 304 303 302 302 300 301 300 295 296 296 294 293 289 282 283 285 285 284 285 286 285 290 292 293 294 294 293 293 293 292 293
294 293 293 293 295 297 300 301 302 302 302 303 303 300 301 299 297 298 298 296 294 294 293 292 292 282 282 283 283 283 283 284 285 287 291 292 292 293 293 292 291 291 292
290 290 290 290 290 291 295 296 296 299 300 301 301 300 299 297 297 296 295 295 293 291 290 289 284 281 281 282 282 280 280 282 281 284 286 288 290 290 291 292 291 290 288
287 287 287 287 287 288 291 292 292 294 295 296 295 294 294 294 293 296 294 293 291 289 286 286 285 280 279 279 279 280 280 279 280 281 282 283 284 285 286 289 287 287 287
285 285 285 285 285 286 291 293 294 292 290 290 291 291 290 288 290 292 294 295 291 288 286 286 286 282 282 281 281 279 279 277 276 281 279 279 282 281 281 283 285 287 287
284 283 283 283 283 284 290 292 292 290 289 289 288 288 287 287 286 288 290 292 293 293 292 288 286 284 282 281 281 279 279 279 279 279 279 278 280 279 282 283 287 288 287
282 282 282 282 281 282 289 290 290 288 287 287 287 287 287 287 286 285 286 286 287 287 288 288 285 284 284 283 282 282 280 280 280 279 281 277 279 279 281 281 286 286 285
279 281 281 281 280 282 288 289 288 286 286 286 286 285 286 285 286 288 285 284 284 283 287 287 287 287 287 286 284 282 280 279 276 277 280 278 276 276 277 277 278 282 283
282 282 281 280 281 283 286 287 287 285 285 285 283 283 284 285 286 287 285 284 281 281 283 283 284 286 286 285 286 284 281 279 276 275 278 277 274 274 272 273 273 274 274

GFSMA_sfc_thetae_087.txt.gz
Theta_e
320 322 323 323 323 321 320 317 317 317 316 316 317 319 319 320 321 319 321 318 322 322 321 320 318 318 317 317 316 316 316 316 315 315 315 314 314 314 313 313 313 312 312
319 320 321 321 321 319 317 316 316 316 315 315 314 314 316 316 318 318 319 321 321 323 321 320 319 318 318 317 317 316 316 315 314 314 314 313 313 313 312 311 311 310 309
319 318 319 319 320 318 315 312 311 312 312 312 313 311 311 311 312 313 314 317 319 319 321 321 320 319 318 318 317 317 317 316 314 313 313 313 312 311 311 310 309 308 307
318 316 315 316 316 315 313 310 309 307 307 307 307 307 307 307 306 306 309 311 314 315 319 322 321 319 319 319 318 317 317 316 314 313 312 312 311 311 310 309 308 307 306
320 318 316 316 315 315 314 309 307 308 305 305 304 306 302 302 305 302 303 305 310 311 314 317 319 319 319 319 319 318 318 317 315 313 312 312 311 310 309 308 307 306 304
319 317 317 315 314 313 312 311 309 307 305 308 302 300 303 298 299 303 303 304 305 305 308 310 313 315 317 319 319 319 319 318 316 314 313 312 311 310 309 308 307 305 304
322 320 319 316 315 312 312 311 307 303 302 300 300 301 297 297 297 299 301 302 304 304 305 304 307 310 314 319 318 318 319 319 317 315 314 312 311 310 309 308 307 305 304
323 321 320 317 316 315 311 309 305 300 304 299 302 296 299 302 297 297 299 299 301 301 301 302 303 305 305 310 314 317 318 319 319 318 315 313 311 310 309 308 307 306 304
324 322 320 319 316 315 312 310 308 305 302 296 301 302 294 296 298 296 297 297 298 300 303 300 301 301 303 306 308 313 317 317 317 318 317 314 312 311 310 309 307 305 305
325 324 322 320 318 315 314 311 310 309 307 301 297 299 299 300 297 298 293 292 296 295 297 300 297 299 299 299 302 305 309 314 314 315 316 315 313 312 310 309 307 306 304
328 326 324 322 320 317 316 314 311 308 308 308 299 299 299 296 293 291 299 304 288 291 295 295 299 297 299 298 299 299 303 309 311 312 313 313 313 312 311 309 307 306 304
325 325 325 324 321 320 318 315 313 311 309 308 308 305 301 298 296 295 294 299 302 299 289 292 295 297 297 299 297 299 300 305 309 310 310 311 311 311 309 308 306 305 304
314 320 321 321 322 321 320 317 314 311 308 308 307 306 305 305 305 299 298 297 295 294 293 289 291 293 295 299 297 296 298 302 306 308 308 308 308 308 307 306 304 303 303
315 317 319 319 320 319 319 318 315 313 311 308 308 308 307 305 306 304 299 296 295 293 291 291 292 292 293 295 295 295 296 299 303 306 308 307 307 306 304 303 301 301 301
308 309 309 312 315 315 317 317 314 312 310 308 307 307 306 307 304 304 303 301 300 297 300 301 290 290 290 293 293 293 294 296 300 304 306 307 306 304 302 301 299 300 300
302 303 304 304 306 310 312 313 313 312 309 308 307 306 306 306 305 303 302 302 301 300 297 304 299 291 289 289 290 291 291 293 296 300 303 304 303 301 300 298 298 299 298
299 299 300 301 301 302 304 306 308 309 308 308 306 305 304 305 304 304 302 301 300 299 296 300 300 292 288 287 288 289 290 290 291 295 299 302 301 299 298 298 298 297 297
296 296 297 297 298 299 301 300 301 303 304 304 305 303 303 303 302 303 303 300 299 299 297 295 298 288 287 287 288 286 287 288 288 291 296 299 297 296 297 297 296 296 296
292 292 293 293 295 296 298 299 300 301 302 302 303 302 302 302 300 300 300 300 297 297 297 295 295 284 285 284 284 284 285 285 286 288 292 295 295 295 296 295 295 294 294
289 289 290 289 290 291 291 293 295 298 299 300 300 300 300 299 299 299 296 296 296 294 293 293 293 291 283 282 284 282 281 283 283 285 288 290 292 293 294 294 293 292 291
287 287 287 288 288 289 289 290 291 293 293 294 295 296 297 296 293 297 295 295 293 292 292 290 290 284 282 280 280 281 281 281 282 284 284 285 287 288 290 293 291 291 291
285 285 286 286 286 287 289 291 291 290 290 290 291 292 291 288 290 292 294 295 295 290 289 290 289 288 286 283 282 280 280 278 277 283 283 283 285 285 286 287 289 290 290
284 284 284 284 285 285 288 290 290 288 289 289 289 288 288 287 287 289 290 292 292 293 295 291 288 288 286 283 282 280 281 280 279 280 281 279 283 282 284 285 289 289 289
282 283 283 283 284 284 288 289 289 288 288 288 288 288 287 287 287 287 287 286 286 287 288 290 287 287 286 285 284 283 282 281 280 281 283 278 280 280 282 283 288 289 289
282 282 283 282 282 283 286 288 288 287 286 286 287 287 286 286 287 288 286 285 285 285 287 290 290 289 289 288 285 283 280 279 277 278 282 279 279 278 280 280 281 288 288
280 282 282 282 281 281 284 286 287 286 285 285 286 285 284 286 287 288 285 285 284 283 284 284 285 286 287 286 286 284 283 281 278 277 280 278 276 276 275 275 276 276 282

GFSMA_sfc_thetae_090.txt.gz
Theta_e
328 328 328 328 328 328 327 326 325 325 325 325 326 327 326 326 325 325 325 318 323 324 323 321 320 319 319 318 318 318 317 316 316 316 315 315 315 314 314 313 313 313 312
327 326 327 326 326 327 326 324 324 324 324 324 324 325 325 325 325 324 324 323 321 325 323 322 322 321 320 320 318 318 318 318 316 316 315 314 314 314 313 312 312 311 310
327 325 325 325 325 325 324 322 320 320 321 321 322 322 322 322 322 322 322 323 322 320 323 322 322 322 321 321 320 319 318 318 317 316 315 315 314 313 313 312 311 310 309
325 321 321 322 323 322 322 320 318 313 314 315 316 317 316 318 316 314 318 320 321 321 320 323 323 322 322 322 321 320 320 319 318 316 315 315 314 314 313 312 311 310 309
327 322 322 322 320 319 317 317 317 316 315 316 315 317 316 317 316 314 313 316 318 319 320 320 320 320 322 322 322 322 321 320 319 317 316 315 314 314 313 312 311 309 308
328 326 326 324 321 320 317 316 314 315 315 316 314 312 315 314 314 314 313 314 316 316 317 318 319 318 317 321 321 322 322 322 320 318 317 315 315 314 313 312 311 310 308
330 327 326 324 321 320 321 319 315 311 308 310 310 312 312 312 311 312 312 313 313 314 315 314 316 318 317 320 321 321 323 323 322 320 318 316 316 315 314 313 312 310 309
331 328 326 325 320 318 318 316 313 312 308 306 308 304 306 314 312 311 312 311 312 314 311 310 311 314 315 317 316 320 321 322 323 323 320 318 317 316 315 314 313 311 309
329 329 327 326 323 318 316 315 312 310 310 307 305 308 300 301 314 314 310 310 310 311 310 310 311 310 311 308 312 316 319 321 321 321 322 320 318 317 316 315 314 312 310
327 326 325 323 322 318 316 317 314 314 313 306 302 304 309 303 299 300 301 300 301 302 307 309 309 307 303 305 306 307 309 315 317 319 319 320 320 318 317 315 314 313 311
328 327 325 323 322 321 318 318 315 313 313 311 305 305 303 302 298 296 299 304 299 303 304 301 303 307 306 306 304 304 305 308 310 313 315 316 317 320 318 316 315 314 312
329 328 326 325 323 322 319 318 317 314 312 312 311 307 303 299 299 297 297 300 301 306 297 296 300 300 304 303 304 302 304 306 309 310 312 313 314 315 317 317 315 314 312
319 321 322 322 323 322 321 319 317 315 313 311 311 310 308 306 308 303 301 302 298 306 304 300 302 301 301 304 305 299 300 304 307 308 309 311 312 312 313 315 315 313 311
319 319 319 320 321 320 321 320 318 316 314 311 310 310 310 308 309 307 302 301 298 299 296 300 304 301 302 303 303 299 302 300 302 305 308 309 310 311 311 312 313 312 309
308 309 311 312 314 315 316 316 315 314 313 312 311 310 310 310 308 307 306 304 302 299 302 307 296 298 298 300 300 301 298 298 300 301 304 306 308 310 310 311 309 311 308
304 305 306 307 308 309 311 312 313 314 314 312 311 310 309 309 309 307 305 305 304 301 299 307 306 300 296 294 293 294 296 295 297 298 300 302 304 307 309 309 309 307 305
299 300 301 301 303 304 305 306 308 309 308 308 310 309 308 308 308 307 305 304 303 302 298 303 304 301 293 292 291 291 292 292 292 294 296 298 300 303 306 307 307 304 302
296 296 296 297 298 299 300 301 302 303 304 303 304 305 305 306 304 306 305 303 302 302 299 298 301 300 291 291 292 290 289 289 290 292 294 296 297 299 303 305 303 300 299
294 295 294 294 294 295 296 297 298 299 301 301 301 300 301 302 300 301 302 302 302 301 300 297 297 300 290 287 286 287 286 287 287 289 292 294 295 296 298 301 298 297 297
293 293 293 292 292 292 293 294 294 295 296 296 298 298 298 299 298 298 298 298 298 298 296 295 295 295 291 284 285 284 283 285 285 285 288 289 291 292 296 296 296 295 295
290 290 290 291 291 291 290 291 291 292 292 292 293 294 295 295 292 295 296 296 295 294 294 293 292 293 287 281 282 283 284 284 283 284 284 285 286 287 290 293 293 292 294
288 288 289 289 288 288 289 290 291 290 289 289 290 291 292 289 291 292 293 294 294 291 289 290 291 291 290 287 285 283 282 279 279 284 284 284 285 285 285 288 291 292 292
287 286 287 288 288 288 288 289 289 289 290 289 289 289 289 289 288 289 290 291 291 291 293 290 288 289 289 288 284 282 282 283 283 283 283 282 285 285 285 286 291 291 291
285 285 286 286 286 287 288 288 288 289 290 290 290 290 289 289 289 288 288 287 287 288 288 287 288 288 288 286 286 285 285 284 283 283 284 280 283 282 285 286 290 290 290
284 284 285 285 285 286 287 287 287 287 287 287 288 289 289 288 288 288 286 285 286 286 288 289 290 291 290 290 287 285 283 281 280 280 283 280 281 281 283 283 285 288 288
282 283 283 285 284 285 286 286 286 286 284 285 286 286 286 287 287 287 285 285 284 285 285 285 285 286 286 286 287 285 284 281 279 279 282 280 279 279 277 277 278 279 285

GFSMA_sfc_thetae_093.txt.gz
Theta_e
330 329 329 329 328 327 326 326 325 325 325 325 326 326 326 326 326 325 325 318 323 325 324 324 322 321 320 320 319 319 319 318 318 317 317 317 317 316 316 316 315 314 314
330 329 328 327 327 327 326 325 324 324 324 325 324 325 326 326 325 325 325 323 321 325 324 324 324 323 323 322 321 320 320 319 318 318 318 317 317 316 316 315 315 314 313
329 328 328 327 327 327 325 324 323 323 322 323 322 324 324 324 324 323 324 324 323 320 323 324 324 325 324 324 323 321 321 320 319 318 317 317 316 316 316 315 315 313 312
330 328 326 326 327 326 324 322 321 319 319 319 319 321 321 321 322 322 321 322 322 322 320 323 324 324 324 324 324 323 322 321 320 319 318 317 317 316 316 315 314 313 312
331 328 325 324 325 323 321 320 317 318 317 317 317 319 319 319 320 319 319 319 320 320 321 321 320 321 324 324 325 325 324 323 322 320 319 317 317 317 316 316 315 313 313
332 330 328 327 326 323 321 320 317 319 316 316 315 314 316 318 319 319 318 318 318 319 319 320 320 317 318 323 323 325 326 325 324 322 320 319 318 317 316 316 315 314 313
334 332 330 329 327 321 321 320 319 318 315 316 311 312 313 315 316 316 316 316 316 317 318 318 318 318 318 320 322 323 325 326 325 324 323 321 319 318 318 317 316 315 314
332 332 330 328 325 320 319 319 317 316 312 312 308 306 305 312 316 314 315 313 313 315 315 315 314 315 316 317 318 321 323 325 325 325 325 323 322 320 319 319 318 317 316
331 330 328 327 325 321 318 319 318 312 311 312 308 308 302 300 310 315 312 312 312 311 314 313 312 311 311 314 316 317 320 322 323 324 326 325 325 322 321 320 319 318 317
330 330 328 326 324 322 319 319 318 316 313 310 304 306 308 307 301 301 304 306 307 308 309 310 308 310 310 311 309 309 311 315 318 320 322 323 323 324 325 322 320 318 318
328 328 327 326 325 323 320 319 317 314 314 312 308 306 303 304 304 299 301 307 310 303 305 306 308 309 309 308 306 307 308 310 312 313 316 318 320 321 322 323 322 320 318
326 326 326 326 325 324 322 320 319 317 314 313 312 311 305 304 300 300 298 301 302 306 309 306 304 304 306 306 305 303 305 308 310 310 311 313 315 318 319 320 321 323 320
322 323 323 322 322 322 321 319 318 316 315 313 312 312 311 309 309 306 303 303 302 306 305 307 305 304 303 304 305 300 302 305 308 308 308 310 312 313 315 317 319 320 320
313 312 313 315 317 318 317 317 318 317 317 315 313 313 312 311 309 309 306 305 301 303 304 301 302 304 304 302 302 300 302 303 304 306 307 308 309 310 312 314 316 317 317
306 307 308 308 310 311 312 312 314 313 313 313 313 312 311 312 312 309 309 307 304 300 302 307 302 303 303 302 301 302 302 301 303 304 304 305 305 306 309 310 313 315 316
302 302 302 303 304 305 307 308 309 310 310 310 309 309 309 310 310 310 308 307 306 303 300 306 307 302 298 297 297 298 299 296 298 301 302 303 302 303 304 306 308 310 314
298 298 298 299 300 300 301 302 303 304 304 305 306 306 305 307 307 307 307 307 305 304 300 303 305 306 298 295 293 294 294 294 294 296 298 299 299 300 301 302 303 305 307
297 297 297 297 297 297 298 298 298 299 299 300 301 302 301 301 302 303 304 303 304 304 301 298 302 302 299 295 296 293 292 291 291 294 295 297 298 298 298 299 300 301 302
295 295 295 294 294 295 294 295 295 295 296 297 297 297 297 297 296 297 299 299 300 301 301 298 298 300 301 288 288 287 288 289 289 291 294 295 295 296 296 297 298 298 298
293 292 293 292 292 292 293 292 291 292 293 293 294 294 294 293 294 295 295 295 295 295 296 296 296 296 297 288 286 286 286 286 287 286 288 289 290 291 293 293 294 296 297
290 290 289 290 290 290 290 289 289 290 290 290 291 290 291 290 289 291 291 291 291 291 291 291 292 293 293 286 285 286 285 287 285 286 285 285 286 286 287 290 292 293 295
288 288 288 288 288 288 290 290 289 288 288 288 288 289 290 289 290 290 291 292 292 289 288 288 288 288 289 291 290 287 285 281 282 284 283 283 285 284 286 287 291 293 294
287 286 287 287 287 288 289 289 289 287 287 288 288 288 288 288 288 288 289 290 290 290 291 288 286 287 287 288 288 286 284 282 283 283 283 282 284 284 285 286 291 292 292
285 285 285 285 286 286 288 288 288 286 287 287 287 287 286 287 287 286 287 286 286 287 287 287 287 286 286 287 287 287 285 284 283 283 284 280 283 282 284 285 291 292 291
284 284 284 284 284 284 287 287 287 285 285 285 286 286 286 286 288 289 286 285 285 286 288 290 290 290 290 290 289 285 283 282 280 280 283 281 281 280 280 280 284 290 291
284 284 284 285 284 283 286 286 286 284 283 284 285 285 286 288 288 287 285 284 283 284 285 285 285 286 286 286 287 285 284 282 279 278 282 279 279 280 276 277 278 282 284

GFSMA_sfc_thetae_096.txt.gz
Theta_e
323 323 322 323 322 321 320 319 319 319 319 320 320 321 321 321 320 319 317 317 323 325 325 325 325 324 322 321 321 320 320 320 319 318 318 318 318 318 317 317 316 317 315
324 323 322 322 321 321 319 319 318 317 318 319 319 320 320 320 320 320 319 316 321 325 325 326 327 326 325 324 323 322 322 321 320 319 318 318 319 318 318 317 317 316 315
324 322 322 321 321 321 320 318 316 316 315 317 317 318 319 319 318 318 318 318 317 320 324 325 326 327 327 327 326 325 323 322 322 321 320 319 319 318 317 318 317 317 315
326 322 321 322 323 322 319 316 315 314 313 313 313 313 315 316 316 316 317 316 316 317 319 324 325 326 326 328 327 327 326 324 323 322 321 319 319 319 318 318 318 317 316
327 323 319 319 319 319 316 316 313 312 311 311 312 312 312 312 313 315 314 314 314 316 315 319 320 321 325 326 328 328 328 327 325 324 322 321 320 319 319 318 318 318 317
329 325 323 320 319 317 316 315 314 312 312 312 313 311 310 311 312 312 313 314 313 314 314 315 314 315 318 323 325 327 328 328 327 326 325 323 322 321 320 319 318 319 317
331 329 324 324 323 320 319 317 316 314 313 313 308 308 310 311 313 313 313 312 312 314 312 314 316 316 316 321 323 325 327 328 328 329 327 327 325 322 321 321 320 319 319
330 330 328 325 324 319 317 316 316 313 312 311 308 305 303 305 311 311 313 311 311 310 310 312 314 313 314 315 316 322 324 327 327 328 329 328 327 326 324 323 322 321 320
329 329 328 326 324 320 317 316 316 314 313 309 307 308 302 301 305 311 311 311 310 307 309 310 311 312 312 311 314 316 320 323 324 327 327 328 328 327 327 326 324 322 321
328 328 327 326 324 321 318 317 317 316 313 311 306 308 310 307 302 302 307 306 307 306 307 306 308 309 309 309 310 309 311 316 318 321 322 324 326 325 326 326 328 325 323
326 326 325 324 323 322 320 318 316 314 315 313 310 306 303 304 304 302 302 306 307 306 305 306 306 307 306 307 308 308 309 312 312 313 315 317 320 321 323 324 325 325 326
322 323 323 322 322 322 320 319 318 316 314 313 313 312 307 305 302 300 300 305 305 308 308 307 304 304 305 305 305 304 306 309 311 311 311 312 314 316 317 319 321 323 323
313 308 310 311 315 317 317 317 316 315 314 314 313 312 312 310 310 309 305 304 303 306 307 306 309 305 303 303 304 300 302 306 309 309 309 310 311 312 313 314 316 317 319
302 303 304 304 305 306 306 308 308 310 311 310 312 312 312 312 311 310 308 305 302 303 306 306 303 305 305 305 303 300 302 303 306 308 309 309 310 310 310 311 312 313 314
299 299 299 300 301 302 302 302 303 303 304 304 305 305 307 309 309 310 309 308 304 299 300 304 305 303 304 304 302 302 302 301 304 306 307 307 308 308 308 309 310 311 312
296 295 295 296 297 297 298 298 298 299 299 299 301 300 301 302 303 305 306 306 306 303 299 304 305 306 301 300 299 300 301 297 300 302 304 304 305 305 305 306 307 308 309
294 294 294 294 294 294 294 294 294 295 295 295 296 296 297 298 298 299 300 300 301 302 299 301 304 304 303 298 297 296 297 297 298 298 300 301 301 302 302 302 303 304 305
292 292 292 292 292 292 292 291 291 291 291 291 293 293 293 295 293 295 296 296 296 298 297 295 298 298 299 301 301 296 296 295 294 295 297 299 300 299 299 300 300 300 300
290 290 290 289 289 290 289 290 289 289 290 290 290 290 290 291 290 291 292 292 293 294 295 293 293 296 297 298 295 290 290 292 290 293 296 296 297 297 298 298 298 298 297
288 288 288 287 287 287 288 287 287 287 288 288 289 289 289 288 289 288 288 288 289 290 290 290 290 291 293 293 286 287 289 287 289 288 290 291 292 292 293 294 293 292 293
286 285 284 284 285 286 287 286 285 286 285 286 286 287 287 287 289 289 288 287 287 286 287 287 287 288 288 289 289 290 286 290 289 287 287 286 285 285 286 289 288 290 293
283 283 283 283 283 285 289 290 289 285 284 284 284 285 285 287 288 289 290 290 289 286 286 286 285 285 286 287 288 287 287 286 285 285 283 279 282 284 285 285 289 291 293
282 282 282 282 282 282 288 289 288 285 284 283 284 285 285 285 286 286 287 288 287 288 289 287 285 285 284 285 285 284 285 285 285 284 282 280 283 282 284 285 290 292 293
280 280 281 281 281 282 287 288 287 284 283 283 283 285 285 285 286 285 286 285 285 285 285 286 286 286 286 287 286 285 285 284 282 282 283 278 280 280 282 281 289 292 292
278 277 280 278 278 283 286 286 286 284 283 283 284 285 285 285 286 288 285 283 284 284 287 288 289 289 289 288 288 285 283 281 278 278 282 280 279 278 278 278 281 291 290
281 281 283 284 283 284 286 286 285 284 282 282 284 284 285 286 286 286 284 283 282 284 285 285 284 285 285 284 285 283 283 279 278 277 281 278 279 279 275 277 276 280 285

GFSMA_sfc_thetae_099.txt.gz
Theta_e
320 321 321 320 320 318 318 317 317 318 318 318 319 319 319 319 319 318 315 316 323 326 326 327 327 326 325 324 323 322 321 321 321 320 319 320 319 319 321 318 319 318 318
322 321 320 320 319 318 317 317 316 316 316 316 317 318 318 319 319 318 317 316 320 325 326 327 328 329 329 327 325 324 324 323 322 321 320 320 320 320 320 320 319 319 318
322 321 320 319 320 319 318 316 315 314 313 314 314 316 316 317 317 317 317 316 316 319 323 326 328 329 329 330 329 328 327 326 324 323 322 321 320 320 319 319 319 319 318
323 320 319 319 319 319 317 315 313 312 311 311 311 312 312 314 315 315 315 316 315 316 318 324 326 327 328 329 330 330 329 329 327 325 324 322 322 321 320 320 319 319 320
325 321 318 318 318 317 315 314 312 311 309 310 311 312 312 310 311 314 313 315 314 315 315 317 320 321 325 327 329 330 330 330 329 328 327 326 324 322 322 321 321 320 319
328 325 320 319 318 316 317 316 315 314 313 312 313 311 312 309 310 311 312 314 315 314 314 314 315 315 318 323 326 328 329 330 330 330 329 328 327 326 325 323 322 321 320
330 329 325 322 320 319 318 317 316 314 313 312 308 306 306 309 309 311 312 312 311 313 311 313 313 314 315 320 323 326 328 329 329 330 330 329 329 328 327 326 324 323 323
330 329 328 324 322 320 318 317 316 314 313 311 309 305 305 307 307 309 310 309 310 309 310 311 311 312 313 314 315 321 324 326 328 328 330 329 329 329 328 326 327 326 325
329 328 328 327 324 321 319 317 316 315 313 311 310 310 304 301 306 310 311 308 308 308 309 309 310 311 311 311 314 316 319 322 323 324 325 326 328 328 329 329 330 328 327
327 327 327 326 324 322 319 318 317 316 314 312 308 308 309 308 302 305 307 309 310 307 307 305 306 307 308 309 309 309 311 315 317 319 320 322 322 324 325 325 326 327 328
326 326 325 324 323 322 320 318 316 315 314 313 310 308 305 304 304 302 301 305 309 309 307 309 310 309 307 306 306 307 309 311 312 313 314 317 318 319 320 321 322 324 324
313 311 314 317 318 318 317 317 316 314 314 313 312 311 309 306 306 302 304 305 305 308 309 309 309 307 308 307 305 304 307 310 311 312 312 313 314 315 316 318 319 319 320
304 304 304 304 304 305 306 306 307 307 307 310 308 309 310 310 309 309 306 304 302 304 305 307 308 309 308 307 306 301 303 306 309 310 310 310 312 312 313 314 315 316 316
298 298 299 299 300 300 300 300 301 301 301 301 301 302 303 304 305 305 305 302 298 299 301 300 302 302 304 307 305 301 303 303 305 307 309 309 310 311 311 312 313 313 314
296 295 295 295 296 296 296 297 296 296 296 296 296 297 298 300 300 301 301 301 300 294 294 297 299 303 303 303 303 305 305 302 304 306 307 307 308 309 309 310 311 311 312
293 293 293 293 293 293 293 293 293 294 292 292 294 293 294 295 296 296 296 297 298 297 293 296 297 301 302 300 299 301 302 298 301 303 304 305 306 307 307 307 308 309 309
291 291 291 291 291 291 291 291 290 290 289 289 290 290 291 292 292 292 293 293 294 294 291 293 295 296 296 296 296 298 299 299 300 300 301 302 303 303 303 304 305 305 305
289 289 289 289 289 289 289 289 287 287 287 287 288 289 288 290 288 289 290 291 291 292 291 288 291 292 292 294 294 294 295 297 296 298 300 300 301 301 301 301 301 301 301
287 287 287 287 287 287 287 287 287 287 287 287 287 286 287 287 285 287 288 287 288 289 289 287 287 290 290 292 291 292 292 293 293 294 297 297 298 298 299 298 298 297 296
286 285 285 285 285 285 286 285 285 285 285 285 286 285 285 285 286 286 286 286 286 286 286 285 286 287 288 289 290 288 288 290 289 290 292 293 293 293 293 293 292 291 291
284 284 283 283 283 284 285 285 284 284 283 283 283 283 285 286 287 288 286 286 286 285 285 284 284 284 284 285 284 286 286 286 287 289 289 288 286 285 285 287 287 288 290
283 282 282 282 282 283 287 288 287 285 284 282 282 284 285 285 286 287 288 288 288 285 284 283 283 282 283 284 285 284 284 282 281 286 284 283 283 283 284 284 288 291 292
281 281 281 281 281 281 287 287 286 285 284 282 283 283 284 284 285 285 286 288 287 287 287 285 283 283 283 284 285 283 283 283 282 285 282 278 281 281 282 283 287 292 293
280 280 280 280 280 281 287 286 286 284 284 284 284 284 284 284 285 285 285 284 284 284 285 285 284 285 286 286 285 284 283 284 283 281 282 276 278 277 279 280 288 292 292
277 276 279 276 278 279 286 287 286 284 284 283 284 284 284 284 286 286 284 283 283 284 287 288 288 288 287 285 284 280 278 279 275 277 281 279 279 278 278 277 278 290 291
279 279 279 276 276 277 285 287 286 284 283 283 284 284 284 285 286 286 284 284 282 283 281 283 283 284 280 278 280 276 275 276 274 272 279 276 278 277 276 277 276 276 280

GFSMA_sfc_thetae_102.txt.gz
Theta_e
317 319 318 318 317 316 317 316 316 316 316 316 317 317 317 318 318 317 315 315 321 326 327 329 329 329 328 327 326 325 324 323 323 322 322 321 321 321 320 321 322 320 320
319 319 318 319 318 317 316 316 315 315 314 314 315 316 316 316 317 317 317 316 319 323 326 328 330 330 331 330 330 328 327 326 325 324 323 322 321 321 321 320 322 321 321
321 320 318 317 318 317 316 315 314 313 312 313 313 314 314 315 315 316 316 316 316 318 322 326 328 329 330 331 331 331 331 330 328 326 325 324 323 322 321 321 321 321 321
322 319 318 317 318 317 315 313 312 311 310 310 310 311 311 312 313 313 314 315 315 316 319 322 325 327 328 330 331 331 332 331 331 329 328 327 325 324 323 322 322 321 321
324 320 318 317 317 316 314 313 312 310 311 309 312 312 311 310 311 312 311 312 314 314 315 318 319 320 324 326 328 329 331 331 331 331 331 329 328 328 326 325 324 324 322
328 324 319 318 319 318 317 316 315 314 313 313 312 312 311 310 309 309 310 311 311 312 312 313 314 314 317 322 324 327 329 329 330 331 330 330 330 328 328 327 327 326 325
329 326 324 321 320 319 318 317 316 314 313 313 311 307 307 309 308 308 309 308 308 310 310 310 311 313 313 318 321 324 326 328 328 329 329 330 330 331 331 330 327 328 327
329 329 328 325 322 319 316 316 314 314 313 312 311 306 305 309 306 309 309 309 308 307 308 309 309 310 310 313 313 319 322 324 325 325 325 327 327 327 328 329 329 330 329
328 328 328 327 325 322 317 316 316 314 313 313 311 310 305 303 306 311 310 308 307 309 306 307 307 308 308 308 311 313 316 318 320 321 321 322 322 323 324 325 326 327 328
327 326 326 325 324 322 320 318 317 316 314 311 310 309 309 307 303 304 306 307 307 307 306 306 307 306 306 306 307 308 310 314 315 317 318 319 320 320 321 322 323 323 324
318 320 322 322 321 320 318 317 316 315 314 312 310 309 306 305 305 301 300 302 307 305 306 307 307 307 307 305 305 305 308 311 312 312 314 315 316 318 319 320 320 321 322
308 308 308 309 309 311 309 309 308 308 309 310 310 310 307 305 304 303 300 301 300 302 303 304 304 305 305 304 305 303 306 309 311 311 311 312 313 314 316 317 318 319 319
302 300 300 300 300 300 300 302 301 301 300 300 300 301 302 302 303 303 301 298 296 297 297 300 302 302 304 303 304 301 303 306 308 309 309 310 311 312 312 314 315 316 316
295 296 296 296 296 296 296 297 296 296 294 294 294 294 296 296 298 298 298 295 291 289 292 293 297 298 299 300 301 300 301 303 305 307 308 308 309 309 310 310 311 312 313
294 293 293 293 293 293 293 293 292 290 290 291 291 291 292 293 293 293 294 294 293 287 287 289 291 294 295 297 297 296 297 298 302 303 304 305 306 306 306 307 308 310 311
291 291 290 290 290 290 291 290 289 289 288 288 290 289 289 290 290 290 290 290 290 290 287 290 291 292 293 294 294 294 295 295 297 300 301 301 302 303 304 304 305 306 307
289 289 289 289 288 288 289 288 287 287 287 287 287 287 287 288 287 287 288 288 288 288 286 288 290 291 290 290 291 292 292 292 293 296 297 298 300 300 300 301 302 303 303
287 287 287 287 287 287 287 286 285 286 285 285 285 285 285 287 285 286 287 288 288 288 286 284 286 287 287 289 290 289 290 292 292 293 295 295 296 296 297 297 299 299 299
286 285 286 285 285 285 285 285 285 285 284 284 284 283 283 283 285 286 286 286 286 287 286 285 284 286 287 288 287 288 288 288 289 291 292 292 293 294 295 295 295 294 293
284 284 284 283 283 283 284 284 285 284 284 283 284 283 283 285 285 285 285 284 285 285 284 284 283 283 284 286 286 284 283 286 285 287 289 290 292 291 291 290 289 288 288
283 283 283 282 282 283 284 284 284 284 284 283 282 283 285 285 286 286 285 285 285 284 284 283 282 283 283 283 282 284 283 284 284 285 284 286 286 284 284 285 285 287 290
282 282 282 282 281 283 287 287 286 284 284 283 282 283 284 285 285 286 287 288 287 285 283 282 282 281 282 282 283 283 281 280 278 281 284 282 282 282 282 282 286 288 290
282 281 281 281 281 281 286 286 286 284 283 283 283 283 283 284 285 285 286 287 286 287 287 285 282 282 282 284 283 281 280 280 280 284 282 274 277 276 280 281 287 293 292
281 281 281 280 280 281 286 287 287 284 284 284 284 284 283 284 284 284 284 284 284 284 284 285 284 284 285 284 281 280 278 277 279 278 280 274 276 276 281 279 284 291 291
278 277 279 276 275 279 284 287 285 283 282 282 282 284 284 283 285 286 284 283 284 283 285 287 287 287 286 283 282 274 272 272 274 274 279 277 277 277 279 277 278 284 290
278 278 278 276 275 273 281 286 286 280 279 280 282 283 284 285 285 286 284 284 281 281 284 283 283 280 277 276 279 271 273 269 270 268 277 275 276 275 275 278 276 276 277

GFSMA_sfc_thetae_105.txt.gz
Theta_e
317 317 316 316 315 315 315 314 314 315 314 315 315 315 315 316 316 317 315 315 319 324 328 330 331 331 331 331 330 329 328 327 326 325 324 323 323 322 323 322 322 322 323
317 317 317 317 316 316 315 315 314 313 313 313 314 314 314 314 315 315 316 316 319 322 326 329 330 331 332 332 332 332 332 331 329 327 326 325 324 324 323 323 323 322 323
319 318 316 316 316 316 315 313 313 312 311 312 311 312 312 312 312 313 314 314 315 318 321 325 328 329 330 331 332 332 333 332 332 331 329 329 327 325 324 324 323 323 323
321 318 316 316 316 316 314 313 312 310 310 309 309 311 312 311 311 311 311 312 312 314 316 320 322 324 326 328 329 330 330 331 332 332 331 331 330 329 327 325 325 325 323
324 319 317 317 316 315 314 314 312 309 309 312 312 312 312 310 310 311 310 310 310 312 312 315 317 318 320 323 326 328 329 329 329 331 330 330 330 329 329 328 328 325 326
326 323 319 318 319 318 317 316 315 315 313 313 314 313 311 310 308 307 308 309 309 310 310 310 310 311 315 319 322 324 326 327 327 327 329 328 329 328 328 329 330 329 328
328 326 324 322 320 316 318 318 316 315 312 313 309 312 309 309 307 307 308 307 308 308 307 308 308 308 310 316 318 321 323 323 323 324 323 324 324 324 325 326 326 328 330
329 328 326 324 322 320 318 317 315 314 313 312 312 308 304 306 307 311 309 308 308 307 308 308 307 307 307 307 310 318 320 321 321 320 320 320 321 321 322 323 324 324 325
328 328 327 326 324 322 319 317 316 315 313 313 311 310 306 303 306 307 307 305 306 304 305 305 306 306 306 305 308 309 313 316 318 318 318 318 319 319 320 321 321 321 322
326 326 325 324 323 322 320 318 317 316 314 311 310 309 308 308 303 301 305 305 304 304 303 304 303 304 305 304 305 305 308 311 312 313 314 314 316 317 318 319 319 319 320
315 317 319 320 319 318 316 315 314 313 313 312 310 308 305 304 300 301 297 296 299 300 301 302 302 303 304 304 304 305 307 308 308 308 309 309 310 312 314 315 316 317 318
307 307 308 307 307 307 306 305 304 302 302 302 302 301 300 300 300 299 297 295 294 295 297 298 299 300 300 301 302 300 302 302 303 304 305 305 305 307 309 311 312 313 315
301 301 300 298 297 298 299 298 297 295 295 294 294 295 295 295 297 296 293 291 289 290 292 293 296 296 297 296 296 296 296 299 300 300 300 300 302 303 305 306 308 309 310
297 295 294 294 294 294 294 293 291 291 290 290 289 290 291 292 292 292 291 289 286 286 286 289 293 292 293 294 295 295 294 296 297 298 299 299 299 300 300 302 304 305 306
293 292 291 291 291 291 291 290 288 288 288 288 288 288 288 289 289 289 288 289 288 283 283 286 287 290 290 291 291 291 292 294 295 296 297 297 297 298 299 300 301 302 304
290 290 289 289 289 289 288 288 287 287 287 287 287 286 286 287 287 287 286 287 286 287 283 286 287 288 289 289 290 290 291 291 292 294 294 294 295 296 296 297 298 299 301
289 288 288 287 287 287 287 286 286 285 285 285 285 284 284 285 284 284 285 285 285 285 283 285 286 288 287 287 288 289 290 289 290 291 292 293 293 293 294 295 296 297 298
287 286 286 286 286 286 285 285 284 284 283 283 283 283 282 285 285 285 285 285 286 286 284 282 285 285 286 287 287 286 287 288 286 289 292 292 292 292 293 293 293 294 294
285 285 285 284 284 284 284 284 284 283 283 282 282 282 282 284 282 283 285 285 285 285 285 283 282 285 285 286 284 284 284 284 287 288 289 290 291 291 291 290 290 289 288
284 284 283 283 283 283 284 284 284 283 282 282 283 283 284 284 284 284 284 284 284 284 284 283 283 283 284 284 283 283 282 283 282 284 286 288 289 287 287 288 287 286 287
283 283 282 282 282 283 284 283 284 283 283 282 283 284 284 284 285 286 284 284 284 284 283 281 281 282 282 281 281 283 281 281 280 279 283 283 281 281 282 283 284 291 292
282 282 282 282 281 283 288 287 285 283 282 282 282 283 284 284 285 286 286 287 286 283 281 281 282 281 281 282 284 281 279 277 276 279 281 279 278 280 281 281 290 292 292
282 281 281 281 280 282 287 286 286 283 282 282 282 283 283 283 284 284 285 286 286 287 287 284 282 282 281 282 281 279 278 276 275 278 278 274 276 278 282 280 291 291 291
281 280 281 281 281 282 286 286 287 283 282 282 282 282 283 283 284 283 283 283 284 284 285 284 284 284 284 283 281 279 276 270 274 276 276 274 275 276 281 279 284 287 289
278 278 280 279 279 280 284 286 286 282 282 282 282 282 283 283 285 286 284 282 283 284 284 287 287 286 285 283 282 268 270 265 267 272 277 274 276 276 279 277 277 282 284
279 280 280 279 277 275 281 285 286 280 275 279 280 282 283 284 285 286 284 283 283 282 283 283 282 281 278 276 280 270 273 269 263 266 275 273 274 275 273 277 275 275 275

GFSMA_sfc_thetae_108.txt.gz
Theta_e
316 315 314 315 314 314 314 313 313 313 313 313 314 313 313 314 314 315 315 315 320 325 328 330 331 332 332 332 333 333 333 333 332 330 328 327 327 326 325 325 325 325 324
316 316 316 315 315 315 314 314 313 312 312 311 312 313 312 313 313 313 313 314 318 321 324 326 328 329 331 331 332 333 333 333 334 332 331 330 329 327 328 326 326 325 325
316 316 315 315 315 315 314 312 312 311 310 311 310 311 311 311 311 311 311 312 312 316 318 322 324 326 327 328 330 330 331 331 331 333 332 331 330 329 329 329 328 328 326
319 316 315 315 315 314 314 312 311 310 309 309 309 310 311 312 311 310 310 310 310 311 313 318 320 321 323 325 326 327 328 329 329 329 329 329 328 328 328 329 329 329 328
323 319 317 316 315 315 316 316 314 311 308 313 314 313 313 310 309 310 308 309 309 309 309 313 314 314 317 321 323 324 325 324 325 324 324 325 325 325 326 326 327 327 328
326 323 318 319 319 318 317 317 315 313 314 311 313 312 311 312 307 306 307 308 308 308 308 308 307 308 313 318 320 321 322 321 320 320 320 322 321 322 322 323 323 325 326
327 325 323 321 320 318 317 318 316 314 312 312 310 309 308 307 306 307 306 306 307 307 306 306 306 306 307 313 314 319 320 320 320 318 318 318 318 318 319 320 321 321 322
329 327 326 324 322 320 318 317 316 314 313 313 312 308 304 305 306 308 307 306 304 304 304 305 303 304 304 304 307 314 315 317 316 316 315 315 314 314 315 316 316 318 319
327 327 326 325 324 322 320 318 317 313 313 313 312 310 305 301 303 303 303 303 302 301 301 301 301 303 302 302 305 305 305 307 309 310 310 310 310 311 312 312 313 314 315
326 324 325 324 323 322 320 318 317 316 315 311 310 309 309 307 300 298 300 299 299 300 299 299 299 299 301 301 301 299 301 301 302 304 305 306 307 307 308 309 310 311 312
317 319 320 320 318 317 315 315 313 312 312 311 306 304 305 299 302 299 293 293 295 296 296 296 295 297 298 296 294 296 298 299 300 300 301 302 303 305 307 307 308 309 310
308 308 309 308 308 308 307 305 302 300 300 299 298 298 300 298 294 292 290 289 288 291 293 293 294 294 293 292 294 295 295 297 298 298 298 299 300 302 303 305 306 306 307
303 302 302 301 300 299 298 296 294 293 293 291 291 291 292 292 292 292 289 286 285 287 289 289 293 290 291 291 291 292 292 294 296 296 296 297 298 298 299 301 302 303 303
299 298 296 295 294 293 291 291 290 289 289 288 287 288 288 288 289 289 288 286 282 283 284 285 289 288 289 289 290 291 290 292 294 295 295 295 296 296 297 298 299 300 301
295 293 292 291 290 290 289 288 287 287 287 286 286 286 286 287 287 286 286 287 286 280 281 284 284 286 287 288 290 289 288 290 292 293 293 294 294 295 295 296 297 298 300
292 290 289 289 288 287 287 287 286 286 285 285 285 285 284 285 284 284 284 284 285 284 280 284 284 285 286 287 288 287 287 289 290 291 292 292 293 293 294 294 295 295 296
289 288 287 287 287 286 286 285 285 285 284 283 283 283 283 283 282 283 283 283 282 283 281 283 284 286 285 285 286 286 286 286 286 289 290 291 292 292 292 292 293 293 293
287 287 286 286 286 285 285 285 284 283 283 283 282 282 281 284 282 282 283 282 282 284 283 281 283 284 284 284 284 283 285 286 284 287 289 290 290 290 290 291 292 292 292
286 285 285 285 284 284 284 284 283 283 282 282 281 281 282 282 281 282 282 281 283 285 284 283 282 283 283 283 284 283 283 283 284 286 287 288 288 289 289 291 292 294 293
285 284 284 283 284 283 284 284 283 282 282 282 282 283 283 283 282 282 282 281 283 283 283 283 282 282 283 284 283 281 280 282 280 282 284 285 286 286 287 288 292 291 292
283 283 283 282 283 283 284 283 283 283 282 282 282 283 283 283 285 285 283 283 284 283 282 281 281 281 281 281 281 282 280 280 279 276 279 281 279 281 282 283 289 290 290
283 282 282 282 282 284 289 287 284 283 283 282 282 282 283 283 284 285 286 286 286 283 282 282 282 280 281 281 282 279 279 276 274 277 277 278 278 279 280 281 289 290 289
281 281 281 281 281 283 288 287 286 283 282 282 282 282 282 282 282 283 285 286 285 286 287 284 281 281 282 282 280 277 277 275 272 276 277 272 275 275 280 279 286 287 289
280 280 280 281 281 283 288 287 286 283 282 282 282 282 282 282 282 283 283 283 283 284 284 284 283 284 284 283 280 276 272 267 270 274 275 271 273 274 278 278 283 284 285
279 279 280 279 280 281 286 287 286 283 283 283 283 282 281 281 284 286 284 282 280 283 286 287 287 286 286 284 281 267 268 270 264 269 277 274 272 273 275 274 275 280 281
280 280 280 278 279 279 283 286 286 283 280 281 281 282 282 283 285 286 281 277 275 276 282 281 282 282 278 275 280 270 271 270 263 264 274 272 271 274 269 272 273 273 274

GFSMA_sfc_thetae_111.txt.gz
Theta_e
322 322 321 322 322 322 323 322 322 321 320 320 320 320 320 320 321 321 321 315 319 323 326 328 330 331 331 332 332 333 333 333 334 332 331 331 331 331 330 330 329 329 328
323 323 322 323 323 323 322 322 321 321 320 319 319 319 319 319 319 319 319 320 317 319 322 326 328 329 329 329 330 330 331 331 331 331 330 330 329 329 329 329 329 330 330
322 323 323 323 324 323 322 321 320 320 319 318 318 318 319 320 319 318 318 318 318 316 318 322 324 323 324 325 326 326 327 328 327 326 325 325 325 326 326 326 326 327 328
323 323 322 322 323 322 322 321 320 319 318 318 319 320 321 320 318 317 317 317 317 317 316 318 318 318 321 323 323 322 323 322 321 321 320 321 322 322 322 323 323 325 325
324 323 323 323 322 321 319 319 317 317 318 320 319 321 321 320 317 315 316 316 316 316 315 314 312 312 315 317 319 320 320 320 319 318 317 317 318 318 317 318 318 319 321
326 324 324 323 321 320 320 319 320 317 318 320 317 318 319 317 316 316 315 314 314 313 311 313 310 311 311 314 317 318 318 317 316 314 314 314 314 314 314 314 314 316 316
327 325 325 324 322 320 320 319 318 317 316 318 319 318 315 314 314 314 315 313 312 309 308 310 308 309 308 311 313 311 312 312 310 309 309 310 310 310 311 311 312 313 313
328 327 326 324 323 321 320 319 318 317 318 318 316 313 310 312 313 312 313 308 308 304 305 305 306 306 306 305 302 304 306 308 309 309 308 308 308 309 310 310 310 311 311
329 328 328 328 325 323 322 320 319 318 316 314 314 314 310 306 308 309 310 306 304 301 303 304 302 303 301 299 298 299 301 303 305 306 306 306 306 307 308 309 309 309 310
328 327 327 328 326 324 322 320 319 318 317 313 312 312 312 311 303 300 306 304 301 298 300 300 302 299 296 295 296 295 297 299 300 301 302 303 304 305 306 306 307 308 308
324 324 325 324 321 319 318 317 316 315 315 314 312 309 307 304 305 301 296 298 297 297 299 298 298 296 294 294 294 294 295 296 296 297 298 299 301 302 303 304 305 305 306
313 313 314 314 313 312 310 308 307 307 307 305 304 304 303 300 299 296 294 293 291 295 296 298 295 293 293 293 292 292 293 294 295 296 296 297 298 299 301 302 303 303 304
309 307 307 306 305 304 302 301 300 299 299 298 297 295 296 295 296 295 293 290 290 292 295 297 293 292 291 292 291 292 291 292 294 295 295 295 296 297 297 299 300 300 300
305 302 300 300 298 297 296 296 295 294 293 293 293 293 292 292 292 292 291 289 287 288 291 290 293 291 290 291 291 291 291 291 293 293 294 294 295 295 296 296 297 298 298
299 297 297 295 294 293 293 292 292 291 291 291 291 291 290 290 290 290 290 290 288 285 285 289 288 290 290 290 290 290 289 289 291 292 292 293 294 294 294 296 297 298 299
295 294 293 292 291 291 291 291 290 289 289 289 289 288 288 288 288 289 288 288 288 286 283 288 287 288 289 288 289 289 288 289 289 289 291 292 292 293 293 295 297 298 298
293 292 291 290 289 289 289 289 288 288 287 287 287 287 286 287 287 287 287 287 286 286 283 285 287 288 287 287 287 289 289 288 288 288 290 290 291 292 293 295 295 295 295
292 290 290 289 288 288 288 288 287 287 286 286 285 285 285 285 285 286 286 285 285 286 284 282 285 285 285 287 287 287 287 286 287 287 289 289 290 290 291 293 293 293 293
289 288 288 287 287 287 287 287 286 286 285 285 285 284 284 285 284 285 285 285 285 285 285 283 283 285 286 287 286 286 286 286 285 285 287 287 288 288 289 292 291 291 290
288 287 287 286 286 286 286 286 285 285 284 284 284 285 285 284 284 285 284 285 285 285 284 284 283 284 285 286 286 284 282 284 283 284 284 285 285 285 287 289 290 289 289
286 286 285 285 285 286 285 285 285 284 284 283 284 284 285 285 285 286 285 285 285 284 284 283 283 283 283 283 282 283 281 282 282 282 282 284 284 284 283 285 287 288 289
285 285 284 284 284 285 288 287 285 284 284 283 283 284 284 284 285 285 285 286 286 284 283 283 283 281 281 283 284 281 280 278 277 283 279 281 283 282 282 283 286 287 287
284 283 283 283 284 286 289 288 286 284 284 284 283 283 283 283 284 284 285 285 285 286 287 286 282 282 282 284 282 279 279 277 277 279 278 278 281 281 282 281 285 285 285
283 282 282 283 284 285 289 288 286 284 284 284 284 284 284 284 284 284 284 284 284 284 285 285 285 285 285 285 283 280 277 275 276 277 278 275 279 280 282 280 282 282 282
282 282 282 282 283 284 288 288 286 284 283 283 284 284 284 284 284 285 284 281 282 283 286 287 287 286 285 284 283 279 277 274 275 276 278 275 277 278 280 278 278 279 280
282 282 282 282 282 283 288 288 287 284 283 283 283 283 282 283 285 285 283 283 282 283 281 284 284 283 280 279 280 278 277 274 273 273 277 275 275 277 276 278 277 275 276

GFSMA_sfc_thetae_114.txt.gz
Theta_e
328 327 328 328 329 330 329 329 328 328 328 326 326 325 325 326 326 327 327 316 320 324 328 329 329 329 329 329 329 329 330 330 328 327 326 326 326 327 327 327 327 328 328
330 329 329 329 330 330 330 330 329 328 328 327 326 325 325 327 326 326 326 324 318 321 324 325 324 325 326 326 326 325 325 324 323 322 321 321 321 322 323 322 323 323 324
329 329 330 330 330 330 329 329 328 328 328 326 325 326 328 327 326 324 324 323 322 317 319 318 319 320 322 321 322 322 322 322 321 320 319 317 318 318 318 318 317 318 318
329 329 329 329 330 329 329 329 329 327 327 327 327 328 328 327 324 322 322 322 320 319 316 314 314 315 317 319 320 320 319 318 316 314 313 314 314 314 314 314 314 314 315
327 329 330 330 330 328 324 324 326 323 324 327 325 326 327 325 322 320 320 318 317 310 311 312 312 312 315 317 316 315 314 313 312 311 311 311 311 311 311 312 312 312 312
327 327 330 331 328 325 323 324 322 326 324 324 322 323 324 322 321 320 318 316 314 306 308 309 309 310 311 310 310 310 311 311 310 310 309 309 309 309 310 310 311 311 311
329 327 327 327 328 327 326 326 323 322 321 324 323 323 321 321 319 318 317 313 307 304 306 306 308 309 308 304 304 306 308 309 309 308 307 307 307 308 308 309 309 309 310
330 328 328 326 328 326 324 323 321 320 320 322 320 319 315 315 318 315 314 310 303 304 304 304 306 304 303 300 299 302 304 306 306 306 306 306 306 307 307 308 308 308 308
330 330 329 330 327 327 327 323 322 321 320 318 320 319 313 310 311 314 313 308 300 301 303 304 302 300 299 298 297 297 299 301 302 303 304 304 305 305 306 306 306 307 307
331 332 330 330 330 331 327 324 322 322 321 317 318 317 317 315 307 303 307 306 299 300 301 302 301 298 297 296 295 295 295 297 298 300 300 301 302 303 304 304 305 305 305
331 331 330 330 329 328 325 321 320 320 320 319 317 314 311 311 309 304 297 297 298 299 301 300 299 297 295 295 294 293 294 296 296 297 297 298 299 301 302 302 303 303 304
326 329 328 326 322 319 318 317 316 316 316 316 315 313 309 305 302 299 297 296 294 296 301 300 297 295 294 294 293 292 293 294 295 295 295 296 297 298 299 301 302 303 304
316 317 318 317 314 312 310 309 309 311 312 309 306 303 302 299 299 297 296 294 293 295 297 299 296 294 293 293 293 291 292 292 294 294 294 295 296 296 297 299 301 302 302
322 314 314 313 307 305 303 304 304 304 304 301 299 298 297 296 296 296 294 293 291 292 294 293 296 293 293 292 292 291 292 291 292 293 293 294 295 295 296 298 299 299 299
313 307 306 303 300 299 300 302 300 297 298 298 297 296 295 294 295 294 294 294 292 289 289 292 291 292 292 292 291 291 291 290 291 291 292 293 293 294 295 297 297 297 298
307 305 300 300 296 296 298 298 296 296 295 295 295 294 293 293 293 293 292 292 292 291 288 290 291 290 290 290 290 291 291 290 289 289 291 291 292 293 294 295 295 295 296
303 303 302 296 295 294 295 295 295 294 293 292 292 292 291 292 291 291 291 291 290 290 288 289 290 290 289 289 290 290 290 290 290 288 289 290 291 291 292 293 293 293 293
302 296 298 294 294 294 294 293 292 292 291 290 290 290 289 289 289 289 290 289 289 289 288 285 287 288 288 289 289 288 289 289 289 288 288 289 289 289 290 292 292 291 291
297 293 295 293 292 292 292 292 291 291 290 290 289 289 288 288 287 288 288 288 288 287 288 287 286 288 288 288 288 288 287 288 288 287 287 287 288 288 288 290 290 290 289
293 290 292 291 291 291 291 290 290 289 288 288 288 288 287 288 287 287 287 288 287 287 287 286 286 286 287 287 288 285 284 287 286 287 286 286 286 286 287 287 288 287 288
290 292 289 290 290 290 288 289 289 288 287 287 287 286 287 286 287 288 287 287 287 286 286 285 285 285 285 284 283 284 283 284 285 285 284 286 286 287 286 285 286 286 287
288 288 287 288 288 286 289 289 289 287 287 286 285 285 286 285 286 286 286 286 287 285 284 284 285 283 283 284 285 283 282 280 280 287 281 283 286 285 285 284 285 285 286
287 286 287 288 287 287 289 289 288 287 286 286 285 285 284 284 285 286 286 286 285 286 286 286 284 283 283 284 284 282 282 280 281 283 280 281 285 283 285 283 283 284 284
285 285 286 287 287 287 289 289 286 287 286 286 285 285 285 285 285 285 285 285 285 286 286 286 286 286 286 287 285 284 281 280 281 282 280 278 283 282 284 284 282 282 282
285 285 286 286 287 288 289 288 286 286 285 284 285 285 285 285 285 286 285 284 285 286 287 287 288 286 285 285 284 283 280 278 279 281 281 278 280 280 282 282 282 280 280
285 285 285 286 286 287 289 288 286 286 284 284 284 284 284 285 285 286 285 285 283 285 285 285 285 286 285 283 282 283 282 278 278 278 279 278 279 278 277 282 281 280 279

GFSMA_sfc_thetae_117.txt.gz
Theta_e
329 328 328 328 328 329 328 328 328 327 328 327 327 326 326 327 327 327 324 317 323 326 326 326 327 327 327 325 324 324 324 322 321 320 319 319 318 318 318 318 318 318 318
330 329 329 330 329 330 329 329 328 328 328 327 326 326 328 328 327 326 326 319 320 319 320 320 320 321 322 323 323 322 321 319 316 315 314 314 314 315 314 315 315 315 315
330 330 330 330 330 330 329 328 328 328 327 326 326 327 328 328 326 323 323 323 319 315 315 315 317 319 321 321 319 317 316 315 314 313 313 313 313 313 313 312 313 313 313
330 329 330 329 330 330 329 329 327 326 326 326 326 327 328 327 324 322 322 320 315 312 313 313 315 317 316 316 314 313 313 313 313 312 311 311 311 311 311 311 311 312 312
331 330 330 330 330 329 328 327 326 326 325 327 325 325 327 324 322 321 318 316 310 309 309 312 312 310 310 310 311 312 312 311 310 310 309 309 309 309 310 310 310 310 310
331 330 330 331 331 329 326 326 325 326 326 324 323 323 324 322 322 320 316 312 305 307 308 308 310 306 305 306 308 309 310 310 309 308 308 308 308 308 308 309 309 309 309
331 328 329 330 330 327 327 328 326 324 323 325 324 323 320 321 319 317 315 308 304 305 305 307 306 305 302 302 303 305 307 308 307 307 307 306 307 307 307 307 308 308 308
330 328 328 327 328 329 328 327 324 321 322 324 320 319 313 314 316 315 311 304 303 304 304 303 301 300 300 298 298 300 303 305 306 305 305 305 305 306 306 306 306 307 307
332 330 328 329 327 327 326 326 324 321 320 320 322 318 311 310 312 313 310 303 301 302 303 302 299 298 297 297 296 295 299 301 302 303 303 303 304 304 305 305 306 307 308
333 332 330 329 328 327 328 330 326 323 321 318 319 317 318 315 309 303 307 302 299 300 301 301 298 297 296 296 294 294 296 297 298 299 300 301 302 303 304 305 306 306 305
333 332 331 331 330 331 331 329 324 321 321 319 318 315 314 312 312 305 298 298 298 300 300 299 297 295 295 295 293 292 294 296 296 297 297 298 300 301 302 303 304 304 303
332 332 330 330 331 329 325 322 320 320 318 318 318 316 311 307 303 300 297 297 295 296 299 299 296 294 294 294 293 292 293 294 295 295 296 296 297 298 300 302 302 302 303
328 328 328 326 324 322 317 315 314 314 314 314 315 311 306 302 302 299 296 294 293 295 297 298 296 294 293 293 292 291 293 293 294 294 295 295 296 296 297 299 300 300 300
326 326 325 323 318 316 312 309 309 309 311 309 304 301 299 298 299 298 296 294 291 292 294 294 295 293 293 292 291 291 292 291 292 293 294 294 295 295 296 297 298 298 298
326 324 321 315 311 308 307 305 303 301 303 302 299 298 296 296 297 296 295 295 293 290 289 292 291 292 292 292 291 290 291 290 291 291 292 293 293 294 295 296 296 296 297
319 317 312 309 306 305 303 303 300 300 299 298 297 295 294 294 294 294 294 293 292 291 289 291 290 290 291 290 291 291 290 290 290 290 291 291 292 292 293 294 294 294 294
313 312 309 305 304 301 301 299 298 297 296 294 295 293 292 293 292 292 292 292 290 291 289 289 289 290 289 289 289 290 290 289 289 289 289 290 290 290 291 292 292 292 292
308 308 304 301 300 298 298 297 294 294 293 292 292 291 290 291 290 291 290 290 290 290 289 286 287 287 287 288 288 288 288 289 288 289 289 289 289 289 289 290 290 290 290
303 302 299 298 296 295 295 295 293 293 292 291 291 290 289 289 288 289 289 289 289 288 288 286 285 287 287 287 286 287 286 287 288 288 288 288 288 288 288 288 289 288 288
299 299 296 295 294 294 293 292 291 291 291 290 290 290 289 289 288 288 288 288 288 287 286 285 285 285 285 285 285 284 283 284 284 287 287 287 288 288 288 287 287 287 287
295 295 291 290 290 291 290 290 290 289 288 288 288 288 288 288 289 289 287 287 287 287 285 284 284 284 284 283 282 283 282 282 283 283 282 283 284 284 284 285 285 285 286
290 289 290 289 289 288 291 291 290 288 287 286 286 286 287 285 287 288 288 289 289 286 283 284 284 283 282 282 283 282 281 280 277 282 280 280 283 282 283 282 284 285 285
288 288 288 288 288 287 291 291 290 287 286 286 285 285 284 285 285 285 287 287 286 287 287 286 284 283 282 282 281 282 281 280 279 281 278 277 281 280 282 282 283 284 284
287 287 288 287 288 287 291 290 288 287 286 286 286 285 284 284 285 285 285 284 284 284 285 285 285 284 285 284 283 283 282 280 280 282 280 275 279 278 280 281 284 283 283
286 286 286 287 287 287 290 289 287 286 285 285 285 285 285 284 285 286 284 284 284 284 287 287 288 288 287 286 285 282 280 279 277 279 278 276 278 277 278 277 280 282 282
285 285 285 287 286 287 290 289 287 285 284 284 284 285 284 285 286 286 284 284 282 283 284 284 284 285 286 284 284 281 281 278 277 277 277 274 276 275 272 277 277 277 276

GFSMA_sfc_thetae_120.txt.gz
Theta_e
322 322 321 322 322 322 321 321 321 322 322 323 322 321 322 322 321 317 317 318 321 322 322 323 323 324 324 323 321 319 317 316 315 315 314 314 314 314 314 314 314 315 315
323 322 322 323 323 323 322 322 321 321 321 321 321 322 323 322 321 318 316 315 318 316 318 320 322 323 321 319 317 317 316 315 314 313 312 312 312 312 312 313 313 313 313
325 323 324 323 323 323 323 322 321 321 320 320 320 322 323 321 319 318 316 314 311 314 315 319 319 318 316 315 315 315 315 314 312 312 311 311 311 311 311 311 311 311 311
325 323 324 324 324 323 322 321 321 319 318 318 319 320 321 320 317 316 312 305 306 309 313 313 313 312 312 313 314 314 313 312 311 310 310 310 310 310 310 310 310 310 310
326 324 324 324 324 323 321 321 319 318 317 319 319 317 319 317 315 314 310 302 303 306 308 309 307 306 308 310 311 312 311 310 309 309 308 308 308 308 309 309 308 309 309
327 325 325 326 325 323 321 320 318 319 319 320 321 320 317 315 315 310 303 301 301 301 303 304 300 301 303 305 307 309 309 309 308 307 307 307 307 307 307 308 308 309 309
327 325 324 325 326 322 321 320 320 318 320 321 319 316 316 316 315 309 300 298 299 300 300 298 298 296 295 301 303 305 307 307 307 306 306 306 306 306 307 308 308 308 307
327 324 325 324 325 322 322 321 318 318 320 320 317 314 309 312 311 305 298 297 297 299 298 296 295 294 293 292 296 301 304 305 305 305 305 305 305 306 306 307 307 307 307
327 325 324 323 323 323 323 323 319 319 317 317 318 314 308 303 308 307 297 294 296 297 296 294 294 293 292 290 292 294 299 301 302 303 303 303 304 304 305 306 305 306 305
328 327 325 324 323 322 322 323 321 320 320 315 316 315 312 310 302 298 298 293 295 296 295 294 291 291 291 290 291 294 296 298 298 299 300 301 302 303 304 304 304 304 304
328 328 327 325 324 325 324 321 320 319 319 316 314 312 307 306 305 298 294 290 293 295 295 292 291 289 291 290 288 291 295 296 296 297 298 299 300 301 303 303 303 303 303
328 328 327 326 326 326 323 322 319 319 319 317 316 312 306 303 300 296 291 290 289 293 294 293 290 289 290 290 290 291 293 295 295 296 296 297 298 298 300 301 301 301 301
327 327 326 325 325 325 323 319 318 317 317 316 313 311 305 300 299 295 292 289 288 290 292 292 290 289 291 289 287 291 293 293 294 294 295 295 296 296 297 298 299 299 299
327 327 326 325 321 315 314 315 314 313 312 311 307 301 296 295 295 294 293 290 286 287 289 290 290 289 288 288 289 291 289 291 292 293 294 294 294 294 295 296 297 297 297
327 321 322 320 314 312 310 310 309 307 306 301 298 295 293 293 292 292 292 292 290 285 285 288 287 288 287 287 288 287 287 291 291 291 292 292 293 293 293 294 295 295 296
325 321 318 317 311 309 309 308 303 301 299 297 296 293 292 291 291 290 290 290 289 288 286 288 286 286 286 288 288 287 287 290 290 289 290 291 291 291 292 292 293 293 294
318 317 314 310 308 307 306 303 300 297 295 293 293 291 290 290 289 289 289 288 287 288 286 285 287 286 285 285 286 286 287 285 285 289 289 290 290 290 290 291 291 291 291
311 312 309 308 305 304 302 300 297 295 294 292 291 289 289 290 288 288 288 287 287 287 286 284 285 283 283 285 285 284 286 287 285 288 289 289 289 289 289 289 290 289 289
307 306 306 305 302 301 300 298 297 295 293 292 290 289 288 288 286 286 287 287 287 287 287 285 282 283 283 283 281 282 283 282 286 289 288 288 288 288 289 288 288 287 288
303 302 302 302 299 298 297 295 293 292 291 290 289 288 288 287 287 287 287 286 287 285 284 282 282 282 280 281 280 279 279 278 279 284 286 286 287 288 288 287 286 286 287
298 297 295 293 293 294 293 291 291 291 289 287 287 287 287 287 288 289 287 285 285 284 284 283 283 281 279 279 280 280 279 278 279 279 278 278 280 281 281 284 283 285 286
291 290 289 290 291 292 293 293 291 289 288 287 286 285 286 286 289 290 290 289 288 285 284 283 283 282 282 281 280 279 280 279 274 279 276 278 277 277 278 278 284 285 285
288 288 289 289 289 289 292 292 290 288 287 286 286 285 284 285 285 285 289 290 289 290 288 285 283 282 280 281 279 276 280 280 279 279 274 272 276 275 277 281 285 284 284
287 287 287 288 287 286 292 292 289 287 286 285 285 284 284 283 284 285 284 284 284 285 285 285 283 283 282 282 281 280 278 278 280 280 279 272 273 274 275 275 285 283 283
286 286 286 286 286 286 291 290 287 286 285 285 284 284 284 284 286 287 284 283 283 283 287 287 287 288 288 288 285 277 277 277 277 278 275 272 273 273 273 272 275 283 282
285 285 285 286 286 287 291 290 288 286 285 284 283 284 284 284 287 287 283 282 281 282 283 282 282 285 287 285 287 280 276 273 277 276 274 272 272 271 269 272 273 272 274